GFSSGP_850_thetae_000.txt.gz
Theta_e
317 318 322 326 319 315 317 320 317 318 318 319 320 319 318 320 321 320 325 325 323 322 318 315 314 316 321 322 324 324 325 326 325 321 322 322 323 322 323 323 322 321 321 320 322 320 322 325 327
318 321 325 326 320 319 318 316 318 316 318 319 320 319 318 318 320 322 323 324 323 319 316 314 314 315 314 314 314 315 316 316 315 315 316 317 317 317 318 320 323 324 325 324 323 323 324 323 322
318 322 326 318 317 319 317 316 314 317 317 317 318 318 319 319 319 320 320 321 322 324 316 314 314 314 314 314 314 314 314 314 314 314 313 313 313 313 313 314 315 317 318 318 318 318 318 320 321
319 321 320 317 320 317 316 315 315 315 317 317 317 316 317 319 319 319 319 319 320 322 315 314 313 313 313 313 312 312 311 311 311 311 310 310 309 309 308 309 309 310 311 311 310 310 310 311 312
320 322 317 318 316 315 314 316 316 314 315 316 317 315 316 317 318 318 317 317 318 320 315 314 313 313 312 310 310 309 308 308 307 306 306 304 304 303 303 303 303 304 304 303 303 303 303 303 303
319 318 315 317 316 317 315 317 316 315 316 316 316 315 316 317 317 317 317 316 317 318 315 314 314 312 310 309 309 309 308 308 306 304 304 304 304 304 303 303 303 302 302 302 302 302 302 302 302
319 316 318 317 318 317 316 317 315 315 314 315 317 313 316 316 317 317 316 315 316 317 316 314 314 313 309 309 309 309 308 306 304 304 305 306 306 304 303 303 302 302 302 303 303 303 303 302 302
319 313 316 315 316 318 317 316 317 316 315 317 317 314 315 318 317 316 316 315 315 317 317 314 313 313 309 308 309 310 308 305 304 304 305 306 305 304 303 303 303 303 303 304 304 304 304 304 303
319 312 313 315 318 317 317 315 317 317 316 316 317 317 317 317 317 316 315 314 315 316 316 315 314 312 309 308 308 310 308 305 304 304 305 305 305 304 303 303 303 304 304 304 304 304 304 305 305
318 312 313 314 317 316 317 316 317 315 315 314 316 317 317 317 317 317 316 316 315 315 315 316 315 313 310 308 308 309 308 306 304 304 306 306 306 305 303 303 303 303 303 304 304 304 305 305 305
317 314 314 318 319 319 317 315 317 314 312 315 317 318 316 316 316 316 316 316 316 315 315 316 316 315 311 309 308 308 309 306 305 305 306 307 307 306 304 303 303 303 303 303 304 304 304 305 305
317 317 317 318 320 317 316 317 315 315 317 317 317 317 317 316 316 316 316 316 316 315 314 315 315 315 312 309 308 307 308 307 305 305 306 307 307 306 304 303 303 303 303 303 303 303 303 304 304
316 316 319 319 318 318 317 315 314 316 317 317 317 316 316 317 317 316 316 316 316 315 315 314 313 314 313 309 308 307 307 308 306 305 304 305 305 304 304 303 302 302 302 303 303 302 303 303 303
316 316 316 317 318 317 316 315 316 317 316 317 316 316 316 316 316 316 316 316 316 316 315 314 313 312 312 311 308 307 307 307 306 304 303 303 303 303 304 304 303 302 302 302 302 302 302 303 302
316 314 311 314 315 313 314 313 311 317 316 317 317 317 316 316 316 316 316 317 316 316 315 314 313 312 311 310 309 307 306 306 306 305 302 302 302 302 302 303 302 302 302 302 302 302 302 301 301
314 313 313 312 311 314 314 314 312 318 316 317 317 317 317 316 316 316 316 316 316 316 315 314 313 312 311 310 309 307 306 305 305 304 302 301 301 302 301 302 301 301 301 301 301 301 301 301 300
310 311 310 311 312 312 311 313 312 316 316 316 317 318 318 317 317 317 317 317 316 316 315 315 313 313 311 309 308 306 305 304 304 303 301 301 300 300 300 300 300 301 301 301 301 301 300 300 299
311 310 310 311 312 311 311 312 313 316 314 314 316 317 317 317 317 317 317 317 317 316 315 314 313 312 310 308 306 305 304 303 303 302 301 300 300 299 299 299 300 300 300 300 300 300 299 298 299
309 309 310 310 311 313 311 312 313 314 314 311 313 314 315 316 318 317 317 316 315 315 315 314 313 312 310 308 306 304 305 304 303 302 300 300 299 299 299 298 299 300 300 299 299 299 298 297 297
311 311 311 311 310 309 311 311 312 310 313 314 313 313 314 316 318 317 316 315 315 315 315 314 313 312 311 309 308 305 306 305 304 302 301 299 299 298 298 298 298 299 299 298 298 298 297 297 296
311 311 312 312 310 308 308 311 309 309 311 312 313 314 315 316 316 316 316 315 315 315 315 314 313 312 310 309 306 305 303 303 302 301 300 299 298 297 297 297 298 298 298 298 297 297 297 296 295
313 310 311 310 311 312 309 313 310 309 309 309 311 314 314 316 315 316 315 315 315 314 314 313 312 311 309 308 307 306 307 306 306 304 303 300 298 297 297 296 297 297 297 297 296 296 297 296 295
313 310 310 311 310 310 311 311 313 309 309 309 311 314 316 316 316 316 315 315 314 314 313 313 311 310 309 308 307 306 305 305 306 304 301 299 298 297 296 296 296 296 296 296 296 295 296 296 295
309 311 309 306 308 312 311 311 312 308 310 310 309 313 316 317 318 316 314 314 314 313 313 312 311 310 309 307 306 306 306 306 305 304 302 301 299 297 296 295 295 295 295 295 295 295 295 295 294
310 310 310 309 308 313 309 308 313 311 311 308 310 314 317 317 317 315 314 314 314 313 313 311 310 309 308 307 307 308 307 306 306 305 303 301 300 298 297 296 295 295 295 294 294 294 294 295 294
308 310 313 311 312 314 304 310 312 309 310 313 312 312 313 313 314 314 314 315 314 313 313 311 310 309 308 309 309 308 308 307 307 305 303 302 300 299 297 296 295 294 294 294 294 294 294 294 293
308 309 310 311 297 306 312 310 311 310 309 308 309 311 311 313 312 314 314 314 314 313 312 311 310 310 309 308 308 309 308 307 307 306 304 301 299 298 297 296 294 293 293 293 293 293 293 294 293
308 308 311 309 313 311 310 311 314 311 312 307 307 308 312 311 312 312 313 313 313 312 311 310 310 311 311 308 308 308 309 308 306 306 305 302 299 297 296 295 293 293 293 293 293 293 293 293 292
307 309 308 310 312 316 316 314 309 309 309 309 307 313 312 310 313 313 313 312 311 311 310 310 310 310 310 309 310 309 309 308 306 306 305 303 300 298 295 294 294 293 292 292 292 292 293 293 292
305 309 310 312 313 309 312 314 313 312 311 311 310 312 313 311 312 312 312 312 312 312 311 311 311 310 311 311 310 309 308 308 306 306 305 303 300 297 295 294 293 292 292 292 292 292 292 292 290

GFSSGP_850_thetae_003.txt.gz
Theta_e
317 318 320 325 318 315 317 317 316 317 317 318 318 317 316 319 319 318 323 325 326 325 321 319 316 314 323 328 330 332 332 329 331 334 328 324 325 325 326 324 323 324 325 325 323 323 323 325 326
316 318 323 325 319 316 315 315 316 314 316 318 319 318 318 318 321 322 323 323 324 323 321 318 312 313 322 323 320 328 333 331 325 325 323 321 320 319 320 321 323 322 322 323 323 322 323 323 322
318 321 325 317 315 318 317 314 313 316 317 317 317 318 318 318 319 321 321 322 322 322 319 315 313 314 316 317 316 316 317 319 315 314 315 314 313 313 314 315 316 317 318 318 319 318 318 320 321
318 320 318 318 320 317 316 314 313 315 316 316 316 315 316 319 318 319 319 320 321 322 319 316 314 315 314 314 314 314 314 314 314 313 312 311 311 311 311 311 312 312 313 313 313 313 312 313 313
319 321 314 316 315 313 311 314 313 313 315 315 316 314 316 316 317 318 317 317 317 320 321 316 314 314 314 314 313 312 312 312 311 310 309 307 307 306 305 305 304 305 305 305 304 304 304 304 304
318 317 315 316 315 315 314 315 314 314 315 314 315 314 316 316 317 317 317 316 316 318 320 316 314 313 312 312 312 310 309 308 307 307 306 304 304 304 304 304 304 303 303 303 303 302 303 303 303
318 314 316 314 316 315 315 315 314 314 314 314 316 314 316 316 316 317 317 316 316 317 320 317 314 313 312 312 310 309 309 308 308 306 304 304 304 304 304 303 303 303 302 302 303 303 304 304 304
319 313 315 313 315 316 316 314 315 315 314 316 316 313 315 317 317 316 316 316 316 315 318 317 314 314 313 311 309 309 309 308 307 304 304 305 305 304 303 303 303 303 303 303 303 304 305 305 305
318 310 311 313 315 317 316 314 316 316 315 315 316 317 317 317 317 316 316 316 316 315 316 317 315 314 313 311 309 308 309 308 305 304 305 306 306 305 304 303 303 303 303 303 303 304 304 304 305
317 309 311 311 314 316 316 315 316 315 315 313 316 317 317 317 316 316 317 316 316 315 315 316 316 315 313 312 309 308 308 308 305 304 304 305 305 304 304 303 303 303 303 303 303 304 304 304 304
316 313 312 316 318 317 316 314 317 313 311 315 316 317 317 316 316 316 316 316 316 316 315 315 315 316 314 313 310 308 308 308 306 304 303 304 305 304 304 303 302 302 303 303 303 304 304 304 304
316 316 316 317 318 318 315 317 314 315 317 317 317 316 316 316 316 316 316 316 316 316 316 315 315 315 315 313 311 308 307 308 308 305 304 305 306 305 304 303 303 303 303 303 303 303 303 304 304
315 315 318 319 317 318 318 315 313 315 317 317 317 317 316 316 316 316 316 316 316 316 315 315 314 314 315 315 313 309 307 307 308 305 303 304 304 304 304 304 304 304 304 303 303 303 303 303 303
315 315 315 316 316 317 315 316 315 317 316 316 316 316 316 316 316 316 316 316 316 316 316 315 315 314 313 314 314 311 308 307 307 305 303 303 304 304 304 303 303 303 303 303 303 303 303 303 303
315 313 310 310 313 312 315 312 310 316 315 317 317 318 318 317 316 316 316 316 316 316 315 315 315 314 313 313 313 311 309 307 306 306 304 303 303 303 303 302 302 302 303 303 303 302 302 302 302
312 311 311 311 310 313 313 311 313 315 316 317 318 317 318 317 317 317 317 316 316 316 316 315 315 315 314 312 311 311 309 306 306 305 304 303 302 302 302 301 301 302 302 302 302 302 302 302 302
308 310 309 310 310 311 310 311 311 315 316 316 316 317 317 317 317 317 317 317 317 316 316 316 316 315 314 313 311 310 309 307 306 304 304 303 302 301 301 301 300 300 300 301 301 301 301 301 301
310 309 308 309 311 309 311 310 311 316 312 313 314 315 316 316 316 316 316 316 317 316 316 316 315 315 314 312 310 309 307 305 304 304 304 303 302 301 300 299 299 299 300 300 300 300 301 301 301
309 308 308 309 309 311 310 311 311 312 313 313 313 313 313 314 315 315 315 315 315 316 316 316 316 315 314 312 310 307 307 306 304 304 304 303 302 300 299 299 298 298 299 299 300 300 300 300 299
309 310 310 311 310 308 309 310 309 308 311 312 313 313 313 313 315 316 315 315 315 316 315 315 315 315 314 312 311 309 308 307 306 305 304 303 301 299 298 298 298 297 298 299 299 299 299 298 298
309 310 311 311 309 307 307 311 310 307 308 311 313 312 313 314 315 316 315 315 315 315 315 315 315 314 313 312 310 308 306 305 304 303 303 302 300 299 298 297 297 297 297 298 298 298 298 297 297
312 308 310 310 310 312 309 312 310 310 310 309 310 312 314 315 316 316 316 315 314 315 314 314 314 314 312 311 310 310 309 309 308 307 305 303 301 299 298 297 296 296 296 297 298 297 297 297 297
311 309 308 308 308 309 310 309 312 309 309 308 308 312 316 316 316 316 316 315 316 315 314 314 314 313 312 311 310 310 309 308 308 307 305 303 301 300 298 297 296 295 296 296 297 296 296 296 296
308 309 307 305 307 311 310 310 314 309 310 310 309 315 316 315 315 314 315 315 315 315 314 314 313 313 312 310 310 309 309 308 307 307 305 304 302 301 299 297 296 295 295 295 296 296 296 295 295
309 308 309 308 308 312 308 308 314 311 309 308 311 310 313 314 314 314 314 315 314 315 314 314 313 312 312 311 310 309 308 308 307 307 306 305 304 303 301 298 296 295 295 295 295 295 295 295 295
307 308 310 310 311 313 304 309 314 310 309 310 310 311 313 315 313 313 313 313 313 313 313 313 313 312 312 311 310 309 308 307 306 306 306 306 306 304 302 299 297 295 294 294 294 294 294 294 294
307 308 308 310 304 310 311 309 310 308 309 309 308 310 312 314 313 313 313 313 312 311 312 312 312 312 311 311 310 309 307 307 307 306 305 305 305 304 302 299 298 296 294 293 294 294 294 294 294
307 307 309 307 311 312 310 311 313 311 312 309 307 306 310 313 314 312 312 312 312 312 312 312 311 311 311 310 310 309 308 308 308 307 306 306 306 305 302 300 298 295 293 293 293 293 293 293 293
306 307 307 308 310 314 314 314 313 313 308 307 308 312 312 310 313 314 312 312 312 312 311 311 311 311 311 310 310 309 309 309 308 309 307 306 306 305 303 300 298 296 294 293 292 292 292 293 293
307 308 308 310 312 310 312 314 313 313 309 309 311 313 312 313 313 313 312 312 311 311 311 311 311 312 312 311 311 310 309 308 307 309 309 306 306 305 303 300 299 296 295 294 292 292 292 292 292

GFSSGP_850_thetae_006.txt.gz
Theta_e
316 317 319 324 317 314 317 316 315 316 316 317 317 316 315 318 318 317 322 323 326 319 315 314 317 318 324 329 329 329 328 332 333 333 334 333 331 325 324 325 326 330 333 330 326 325 324 324 326
316 318 322 324 319 315 312 314 317 313 315 317 317 318 317 316 320 322 322 322 323 324 321 317 317 315 320 329 332 332 333 334 333 335 333 328 324 323 324 324 323 322 321 320 322 323 322 322 322
317 319 322 315 313 314 315 314 314 315 316 317 316 317 318 318 319 321 321 321 320 322 322 318 316 313 317 331 332 330 333 333 334 329 322 320 319 316 315 317 320 321 321 321 321 319 318 318 318
317 320 318 317 318 317 315 315 312 315 316 316 315 314 316 319 319 319 320 321 321 321 320 318 314 312 314 323 328 329 331 330 317 315 315 314 313 312 312 312 313 313 314 314 314 314 313 312 312
318 319 312 315 314 313 311 315 313 313 314 315 315 314 315 316 317 318 317 318 320 319 320 318 315 313 314 316 317 319 319 320 319 315 312 311 310 309 308 307 307 307 307 306 306 305 305 304 304
317 316 314 313 313 313 312 316 314 313 314 314 314 314 316 316 316 316 317 317 316 317 319 320 316 314 314 314 314 314 314 313 313 312 309 307 306 304 303 303 303 303 303 303 303 303 303 303 303
317 313 315 313 313 314 315 313 313 314 314 314 315 314 316 316 316 316 316 317 316 316 318 320 318 315 314 314 314 313 312 311 310 308 307 305 304 304 304 304 303 303 303 302 302 303 303 304 304
319 313 315 312 313 315 315 314 314 314 314 315 315 313 315 317 317 316 316 316 316 316 316 318 319 315 313 313 312 312 310 309 308 307 306 303 304 304 304 304 303 303 303 303 304 304 305 305 305
317 310 310 313 312 314 315 314 316 316 315 314 316 317 317 317 317 316 316 316 316 316 315 315 318 316 314 313 312 311 309 308 307 307 304 304 304 305 304 303 303 303 304 304 304 304 304 305 305
316 308 310 309 310 314 315 314 317 315 316 313 316 317 317 317 316 316 316 316 316 316 316 315 315 317 315 313 313 311 309 308 308 307 304 304 305 305 305 304 303 303 303 303 303 303 304 304 304
314 313 310 314 315 316 315 314 317 313 312 316 316 316 316 316 316 316 316 316 316 316 316 316 315 316 316 314 313 312 309 308 308 307 304 304 305 306 306 304 303 303 303 303 303 303 303 304 304
316 315 315 315 317 316 315 316 313 314 318 317 317 317 316 316 316 316 316 316 316 316 316 316 315 315 316 315 314 313 311 308 308 307 304 304 304 305 306 304 303 303 302 302 303 303 303 303 303
314 314 317 318 316 317 317 315 313 315 317 317 317 316 316 316 316 316 315 315 315 315 315 315 315 315 315 315 315 313 312 309 307 307 306 303 303 304 305 305 304 303 303 303 303 304 304 304 303
313 314 313 314 315 315 314 314 314 315 316 316 315 316 316 316 317 316 316 317 316 315 315 315 315 315 314 314 315 315 313 311 308 307 307 304 303 304 304 304 303 302 302 303 303 303 303 303 303
314 312 309 309 312 310 313 312 309 316 315 315 315 316 317 317 316 317 317 316 316 316 315 315 315 314 314 314 314 314 314 312 309 307 307 305 302 303 304 303 303 301 301 302 302 303 303 303 303
311 310 311 310 309 311 312 310 310 314 314 314 316 316 316 316 316 316 316 316 316 316 316 316 315 315 314 314 314 313 313 313 311 307 306 305 303 302 303 303 301 300 301 301 301 302 302 302 302
307 309 308 308 309 309 308 309 309 314 313 314 315 315 315 315 315 315 315 315 315 315 315 316 315 315 314 314 313 313 312 312 311 308 306 305 303 302 302 302 301 300 300 300 301 301 302 302 302
309 307 307 307 309 307 309 309 309 313 312 310 311 313 313 314 315 315 315 314 314 314 314 314 315 314 314 314 313 312 311 310 309 307 305 304 304 303 302 301 300 299 298 299 300 300 301 301 301
308 307 306 307 308 308 310 310 309 310 310 311 311 311 312 312 315 315 315 315 314 314 314 314 314 315 314 314 314 312 311 310 308 308 306 304 304 303 302 301 299 299 298 298 299 300 300 300 300
308 308 309 309 309 307 308 309 309 309 310 311 311 312 311 313 314 315 315 315 315 315 314 314 314 314 315 314 314 312 312 311 309 308 306 305 303 303 302 300 299 299 298 298 298 299 299 299 299
307 308 310 309 308 306 305 310 307 308 308 310 311 313 311 313 314 315 314 313 313 314 314 314 314 314 314 313 312 311 310 309 308 306 305 304 303 303 302 300 299 298 297 297 298 298 299 299 298
310 307 308 309 308 310 307 311 308 308 308 307 309 311 314 315 313 314 314 315 314 314 315 314 313 313 313 313 312 312 312 312 312 310 308 306 305 304 302 300 299 298 297 296 297 297 298 298 298
310 309 307 307 307 307 308 307 311 307 309 308 307 312 311 314 314 314 315 315 315 315 315 314 313 312 312 312 313 312 311 310 310 309 308 306 305 303 302 300 298 297 297 296 296 296 297 297 297
307 308 306 305 306 309 309 308 314 308 309 310 309 314 313 314 313 314 314 314 313 313 314 315 313 313 312 311 310 310 310 310 310 308 308 306 304 303 302 300 299 298 297 296 295 296 296 296 296
308 307 308 308 308 311 307 307 312 310 310 308 307 311 312 313 313 312 313 314 313 312 311 312 312 312 312 311 310 309 309 309 309 309 308 308 305 303 303 302 300 299 297 296 295 295 296 296 296
305 308 309 312 309 314 303 309 315 311 309 311 310 310 310 312 313 313 313 312 312 311 310 311 311 311 311 311 310 309 308 308 307 308 308 307 307 306 304 302 300 299 297 296 295 294 295 295 295
306 308 308 310 310 309 312 309 309 310 307 307 308 309 310 312 312 313 313 313 312 311 310 311 311 311 311 310 309 309 310 309 308 308 307 306 305 305 304 303 301 299 298 296 295 294 294 294 294
306 306 309 307 312 313 310 311 312 312 312 308 306 306 311 312 309 308 310 312 310 308 307 307 308 309 310 310 310 310 309 309 309 307 307 307 306 305 304 303 302 300 297 296 295 294 293 294 294
309 307 306 307 310 315 316 314 310 312 311 307 305 311 307 304 305 306 306 306 306 306 306 305 305 305 305 305 305 306 307 308 307 307 307 306 305 305 304 303 302 301 299 296 295 294 293 293 293
307 311 310 313 313 310 312 313 310 309 310 306 301 300 301 302 301 302 303 302 304 305 306 305 305 305 306 306 306 306 305 306 306 305 306 306 306 305 304 303 301 301 300 297 296 295 293 293 293

GFSSGP_850_thetae_009.txt.gz
Theta_e
316 317 318 323 321 318 319 318 314 316 315 315 316 317 317 317 319 320 321 322 323 317 319 322 325 326 327 327 329 329 327 325 325 325 325 324 323 322 323 323 326 331 333 330 326 325 323 323 324
315 317 320 323 320 318 314 314 317 315 315 316 317 317 317 318 319 321 321 322 323 320 315 315 317 319 322 325 330 329 327 327 331 330 331 327 325 321 320 322 323 325 322 320 321 322 322 322 322
316 318 321 317 315 316 316 314 314 314 315 316 316 316 317 318 319 320 321 322 320 321 319 315 314 315 315 321 329 328 328 332 332 332 332 326 322 319 318 318 320 321 320 321 321 321 319 317 317
316 319 317 319 319 317 315 315 312 314 315 315 315 314 316 318 319 319 319 321 320 321 322 320 316 315 312 319 327 328 330 333 333 333 324 322 319 316 314 313 314 316 317 315 314 314 314 313 311
317 318 313 314 314 314 312 314 314 313 314 314 315 315 315 317 316 317 318 318 321 321 321 321 317 314 312 315 325 325 331 333 331 319 316 314 313 312 311 311 311 311 311 311 310 308 306 305 304
317 315 315 314 312 311 312 315 313 312 313 314 314 314 316 317 316 315 316 317 318 320 319 320 319 315 312 313 318 320 320 321 322 319 315 312 310 308 307 306 305 304 304 304 303 303 303 303 303
315 314 314 313 313 314 314 313 313 314 314 314 315 314 316 317 317 317 316 316 316 317 318 318 319 317 314 313 314 315 316 317 317 315 312 309 307 305 303 303 304 303 303 303 303 303 304 304 305
318 314 314 313 314 314 314 313 314 314 315 315 315 314 315 317 317 317 317 316 316 316 316 316 318 319 316 314 314 314 314 314 313 311 310 307 305 304 304 304 303 303 302 302 303 304 305 305 305
317 312 312 313 311 313 314 313 314 315 316 314 316 317 317 317 316 316 316 316 316 316 316 315 316 318 318 315 314 313 313 312 311 310 308 307 304 304 304 305 304 303 303 304 304 304 305 305 305
315 311 311 310 309 312 315 314 316 315 316 314 315 316 316 316 316 316 316 316 316 316 316 316 315 315 318 316 313 313 312 312 310 308 308 307 304 304 304 304 304 303 303 303 303 304 304 304 304
314 314 311 312 313 313 314 313 315 314 313 317 317 317 317 316 316 316 316 316 316 316 316 316 316 315 316 317 315 313 312 312 309 308 308 306 304 304 305 305 304 304 303 303 303 303 303 304 304
315 315 314 315 316 315 314 315 313 315 317 316 316 316 316 316 316 315 316 316 315 315 315 316 316 315 315 316 316 314 313 312 310 308 308 306 304 304 306 306 305 304 303 303 303 303 303 303 303
313 313 316 316 315 316 316 315 313 315 316 315 315 315 315 315 315 316 316 315 316 315 315 315 315 315 315 315 315 315 314 313 312 309 308 307 304 303 304 305 305 304 303 303 303 303 303 303 303
312 313 313 313 314 314 313 314 313 314 314 315 315 315 315 315 315 316 316 316 316 316 316 315 315 315 315 315 315 315 315 314 313 310 308 307 305 303 303 304 305 304 304 303 302 302 303 303 303
312 312 309 309 311 310 311 311 310 315 314 314 314 315 315 316 315 315 315 315 315 315 315 315 315 314 314 315 315 315 315 315 314 312 310 307 306 304 303 303 304 304 303 302 302 302 302 303 303
310 309 310 310 308 310 312 312 310 313 312 313 314 314 314 315 315 315 315 315 314 314 314 315 315 315 314 314 314 314 314 314 314 314 311 308 306 305 302 302 303 302 302 301 301 301 302 302 302
307 309 307 308 308 309 309 310 309 312 311 311 312 313 314 314 315 315 315 314 314 313 313 313 314 314 314 314 314 314 314 314 314 314 312 309 306 305 303 301 302 302 301 301 300 301 301 302 302
309 307 306 307 310 306 308 308 309 311 311 310 311 311 312 312 314 315 314 313 313 313 313 313 313 313 313 313 313 313 313 313 313 313 313 311 307 305 303 301 301 301 300 300 300 300 300 301 301
308 306 306 307 307 307 310 309 309 309 309 309 310 311 311 312 315 314 313 314 315 315 314 314 313 313 313 313 313 312 313 313 313 312 312 311 309 305 304 302 301 300 300 300 299 299 300 300 300
307 308 309 308 308 306 308 310 310 309 310 310 310 310 311 313 315 314 313 313 313 314 314 314 313 313 314 313 313 312 313 313 312 312 311 310 309 306 304 302 301 300 300 299 298 298 299 299 299
307 308 309 308 306 306 305 308 307 309 308 310 312 311 312 311 312 313 313 314 314 314 314 315 314 313 313 313 312 312 311 311 311 311 310 309 308 306 304 303 302 301 299 299 299 298 298 299 299
309 307 307 307 308 309 307 311 308 310 308 307 309 310 312 312 312 312 312 313 314 314 315 314 314 313 312 311 310 311 313 313 313 312 311 309 308 307 305 303 302 301 299 299 298 298 298 298 298
309 308 308 307 307 307 307 307 309 307 309 308 308 311 311 312 312 313 313 312 311 311 312 311 312 311 311 311 311 309 309 311 311 311 311 309 308 306 305 304 302 301 300 299 298 297 297 297 298
306 307 304 304 306 309 309 308 311 308 310 309 308 313 311 312 312 313 312 311 310 310 309 309 310 308 308 308 308 308 308 308 309 310 310 309 308 306 304 303 302 301 300 299 298 297 296 296 297
308 307 309 309 308 311 306 307 311 310 309 308 309 310 308 311 309 308 310 311 310 309 308 308 307 306 305 305 306 306 306 306 307 307 307 308 308 306 306 304 302 302 300 299 297 296 296 296 296
305 307 312 313 312 315 302 312 316 307 310 310 308 306 306 305 304 304 305 306 306 307 308 307 306 305 304 304 303 303 303 303 303 305 306 306 307 307 307 305 303 302 301 299 297 295 295 295 295
306 307 308 310 308 311 312 310 312 311 306 305 303 301 300 300 301 301 302 302 303 304 304 305 305 305 303 302 303 303 302 302 303 303 303 303 304 305 305 304 304 304 302 300 298 297 296 295 294
306 306 309 307 311 313 312 312 313 311 305 302 301 299 296 296 298 299 300 300 299 299 301 303 303 303 303 304 304 303 302 301 301 302 304 305 305 304 304 303 303 302 302 300 299 297 296 295 294
306 306 306 307 310 314 316 315 309 304 302 300 297 295 294 294 295 296 298 299 299 297 297 298 300 300 302 302 303 304 303 301 300 301 302 303 303 303 303 304 302 302 302 300 299 298 296 295 294
308 310 310 315 316 311 315 316 309 299 298 295 292 292 293 294 294 294 294 294 295 295 295 295 295 295 297 299 300 301 303 303 302 300 299 300 300 301 302 302 302 301 301 301 300 298 297 296 295

GFSSGP_850_thetae_012.txt.gz
Theta_e
316 317 317 323 325 323 322 324 321 323 321 318 317 320 322 321 321 322 321 322 320 318 325 328 328 328 328 329 330 330 328 326 326 325 324 324 324 324 323 323 325 327 331 330 327 325 323 321 322
315 316 319 323 322 320 319 321 323 321 319 317 317 318 320 321 320 320 321 322 322 318 322 325 327 328 328 327 326 328 328 326 325 326 327 327 326 327 322 323 329 327 328 321 320 322 322 322 322
315 316 321 322 322 320 321 321 321 318 316 317 319 317 319 321 319 320 320 322 322 319 318 320 323 324 325 325 322 325 327 326 326 330 331 332 326 321 319 321 323 323 322 320 321 321 321 319 317
316 320 319 321 321 322 321 321 320 320 316 315 317 319 317 318 319 319 318 319 321 320 318 316 315 318 319 319 319 324 324 325 332 332 332 324 318 316 315 315 315 317 318 318 317 315 315 314 312
316 319 319 320 320 319 319 318 317 319 318 317 316 320 318 317 317 316 317 317 321 321 320 319 316 314 315 314 318 323 325 329 333 330 316 314 313 313 313 312 311 312 313 313 312 311 307 305 304
318 319 319 319 319 319 318 318 317 318 317 317 316 318 319 317 316 316 315 316 318 321 321 321 320 317 315 312 316 322 327 331 331 328 317 315 312 311 310 309 309 308 307 306 305 304 303 303 303
319 319 319 319 320 320 320 315 317 318 318 319 316 319 319 317 317 317 316 316 316 319 320 320 320 320 316 313 313 319 321 328 331 327 317 313 310 309 307 305 304 304 304 303 303 302 303 304 305
319 320 320 320 320 319 318 316 315 317 318 316 316 319 319 317 317 317 316 316 316 317 317 318 319 320 319 315 313 314 317 319 322 318 315 312 310 307 304 304 304 304 303 303 302 303 304 305 306
317 320 320 319 318 318 317 317 314 316 316 315 316 317 318 317 316 316 316 316 316 316 316 317 317 318 319 317 315 314 315 315 317 316 314 311 309 306 304 303 304 303 303 303 303 304 304 305 305
319 320 319 318 317 317 317 316 317 316 317 318 316 316 317 317 316 316 316 316 316 316 316 316 316 316 317 318 317 315 314 314 314 314 312 311 308 305 304 304 303 303 302 303 303 304 304 304 304
319 320 319 317 315 314 316 316 315 317 318 318 318 317 317 316 316 316 316 316 316 315 316 316 316 316 316 316 318 316 314 314 313 313 311 310 307 304 303 304 304 303 303 303 303 303 304 304 304
319 318 318 318 316 316 317 316 316 316 317 317 317 316 316 315 315 315 315 315 315 315 315 315 316 316 316 315 317 317 315 314 313 313 311 309 307 305 304 304 304 304 303 303 303 303 303 303 304
317 318 317 317 315 315 316 316 317 316 316 316 316 315 314 314 314 314 314 315 315 315 315 315 315 315 316 316 315 316 316 315 313 313 312 309 308 307 304 304 305 304 303 303 303 303 303 303 303
315 315 315 314 315 315 315 316 314 315 315 314 315 314 315 314 315 315 315 315 315 315 315 315 315 315 315 315 316 315 315 315 314 313 313 311 308 307 304 304 304 304 303 303 302 302 303 303 303
313 315 315 315 314 314 313 315 315 315 314 313 314 315 314 315 314 314 314 315 315 315 314 314 314 315 315 315 315 315 315 315 315 315 314 312 309 307 305 303 303 304 303 303 302 302 302 303 303
314 313 315 316 312 312 314 315 316 315 312 313 314 314 314 314 314 314 313 314 314 314 314 313 313 314 314 314 315 315 315 315 315 315 314 313 311 308 306 303 302 303 302 302 302 302 302 302 302
314 315 315 315 313 313 314 315 315 314 312 313 313 313 314 313 313 313 313 313 313 314 313 313 313 313 313 314 314 314 314 315 315 315 315 314 312 309 306 304 302 302 302 301 301 301 301 301 301
317 316 315 314 315 314 313 313 313 312 312 312 313 313 313 313 313 312 312 312 311 312 313 313 313 313 312 312 312 312 313 314 314 315 315 315 314 311 307 305 303 301 301 301 300 300 300 300 301
313 314 314 315 314 313 314 314 314 313 313 313 313 313 314 313 312 311 312 312 312 313 313 312 312 312 312 312 311 311 312 313 314 314 314 315 314 312 309 306 304 301 301 301 301 300 299 300 300
313 314 314 315 314 311 313 313 313 314 313 314 313 313 313 312 311 310 310 311 311 312 312 313 313 311 311 311 311 310 311 311 312 313 314 315 315 313 311 308 306 303 301 300 300 299 299 299 299
313 314 315 315 313 312 312 316 315 315 312 313 311 311 311 310 310 309 310 311 311 311 311 311 311 310 310 309 308 308 309 309 310 311 312 313 314 314 312 308 307 304 301 301 301 300 299 299 299
314 314 313 312 312 318 312 319 318 317 315 313 313 312 311 309 308 305 304 306 307 308 308 308 309 309 308 308 306 306 307 307 308 309 310 311 312 314 312 309 307 304 301 300 300 299 299 298 299
314 310 310 310 312 312 315 314 319 313 314 314 313 310 309 306 304 303 304 304 304 306 307 309 308 307 306 305 305 305 305 305 304 305 306 307 309 311 312 310 306 303 301 300 300 299 298 298 298
308 311 310 310 312 317 317 315 317 315 314 313 310 307 304 304 303 302 302 304 306 307 306 305 305 305 304 303 303 303 303 303 303 304 304 304 305 306 310 310 307 303 301 300 300 299 298 298 297
309 312 320 321 320 320 313 313 316 315 312 308 308 305 303 302 302 302 303 302 302 303 304 305 304 303 303 303 302 302 302 301 302 302 302 302 303 304 305 307 306 304 302 300 299 299 299 298 297
312 314 319 320 321 319 310 315 316 313 307 305 304 303 301 301 301 302 303 302 301 300 301 301 302 302 302 303 303 301 301 301 301 301 301 301 302 302 303 304 305 305 302 300 299 298 298 297 297
312 313 313 315 317 317 316 316 316 313 307 306 303 301 299 298 298 298 298 301 301 300 300 300 300 301 301 301 301 302 302 302 301 301 300 301 300 300 301 301 302 303 303 302 300 299 299 297 296
310 311 313 312 315 318 315 315 316 312 309 305 302 299 297 296 296 296 296 296 296 298 298 298 298 297 297 300 300 300 301 301 302 302 301 300 300 300 300 299 300 301 301 301 300 299 299 297 296
311 309 309 310 312 317 318 316 312 311 305 303 299 296 295 295 295 295 295 296 296 294 295 296 296 295 296 296 297 299 300 299 301 301 302 302 300 299 299 299 299 299 299 300 300 300 299 299 297
309 312 311 313 315 313 313 315 306 302 300 297 295 294 294 294 293 294 294 293 293 292 292 292 292 292 291 291 294 294 296 298 297 298 300 301 302 302 300 299 298 298 298 299 299 299 299 298 298

GFSSGP_850_thetae_015.txt.gz
Theta_e
317 317 318 325 327 324 323 324 323 324 324 321 320 322 322 321 322 324 321 321 321 324 329 327 328 331 332 332 331 330 329 329 328 328 327 326 326 325 324 325 328 330 334 331 328 326 324 321 322
316 316 322 322 325 324 322 323 323 323 321 320 320 320 322 322 321 322 324 321 321 318 329 327 328 329 330 330 330 330 328 327 326 326 325 325 325 323 323 324 332 329 325 325 322 320 321 322 322
315 316 322 323 323 324 323 323 323 321 321 320 321 320 320 321 321 322 320 320 322 319 319 324 327 328 328 329 329 329 330 328 326 325 327 329 329 324 324 321 321 323 321 321 320 320 321 320 317
320 321 321 322 323 322 322 322 321 321 321 319 319 321 320 319 320 320 319 318 322 321 318 320 322 327 328 329 327 327 327 327 326 325 330 331 320 318 317 316 317 318 316 318 318 317 315 314 313
319 320 322 322 321 321 320 320 321 322 322 320 319 321 320 319 317 317 316 317 319 322 319 319 317 319 322 324 323 323 326 327 326 332 333 330 314 314 313 314 313 312 313 314 313 313 310 307 305
320 319 322 322 321 320 321 321 321 321 321 320 319 320 320 319 317 317 316 316 317 320 321 319 318 316 316 316 316 317 321 323 330 334 331 322 314 312 311 311 311 311 310 309 308 305 304 303 303
321 322 322 321 321 321 321 319 320 320 320 320 319 319 319 319 317 317 317 316 316 318 319 321 320 319 316 316 315 315 318 323 327 331 327 325 316 311 310 309 308 306 305 304 304 303 303 303 304
320 321 321 321 320 320 320 319 319 319 319 318 318 320 320 320 318 317 316 316 316 316 317 319 320 320 320 317 315 314 320 322 325 330 328 323 316 311 309 307 305 304 303 303 303 303 303 305 306
319 321 321 321 320 319 319 319 318 318 317 318 318 318 318 318 317 317 316 316 316 316 316 317 319 319 320 320 318 314 314 321 323 325 324 317 314 311 308 305 304 304 304 303 302 303 304 305 305
320 322 321 321 319 319 318 318 318 318 318 318 319 319 319 318 317 316 317 318 318 316 316 316 317 317 319 321 322 318 314 315 320 321 322 317 314 311 308 304 304 304 303 302 303 304 304 304 305
321 321 320 320 319 318 318 317 317 318 318 318 318 318 318 318 318 317 317 318 320 321 319 316 316 317 317 318 319 320 317 314 315 317 319 316 315 312 308 304 304 304 303 302 303 304 304 304 304
321 319 319 319 319 318 318 317 318 317 317 317 317 317 317 317 317 317 317 317 318 319 321 318 316 316 317 317 318 318 318 317 316 316 318 320 317 312 308 304 304 304 304 303 303 303 304 304 304
319 319 318 318 318 318 317 317 317 317 317 317 317 317 317 317 317 317 316 315 315 315 316 316 316 315 315 316 317 317 318 319 319 319 320 318 314 311 308 305 304 304 305 304 304 304 303 304 304
317 317 317 316 316 316 316 317 316 316 316 316 316 316 316 316 316 316 316 315 315 315 315 315 315 315 315 315 316 316 316 318 319 318 317 315 313 312 309 307 303 304 304 304 303 303 303 303 304
315 316 317 317 317 317 315 316 317 317 317 316 315 315 315 315 315 316 315 315 315 315 314 314 314 314 314 315 315 316 316 317 317 317 317 315 313 313 310 307 304 303 304 303 303 302 302 303 303
316 316 317 318 316 315 315 316 317 316 315 315 315 315 315 315 315 315 315 315 315 314 314 314 313 313 313 314 315 315 316 316 317 317 317 315 314 313 311 308 306 304 304 304 303 302 302 302 302
318 318 319 318 317 316 315 316 316 315 315 315 315 315 315 315 315 315 314 313 313 313 313 313 312 312 312 312 314 316 316 318 318 318 318 317 315 314 312 309 307 304 303 303 303 302 301 301 301
320 320 319 318 319 316 317 317 317 316 316 316 316 316 316 316 314 312 310 310 310 310 311 311 311 311 310 311 312 316 317 317 318 318 318 318 317 315 313 311 308 305 302 302 302 302 301 301 301
317 317 318 318 318 318 317 316 316 317 317 317 317 317 316 314 312 310 308 308 309 310 310 311 310 309 309 310 311 312 315 317 317 318 317 317 316 316 314 312 309 307 303 301 301 301 300 300 300
316 317 317 317 318 314 316 317 316 317 317 317 316 315 314 312 310 307 308 309 310 309 309 308 307 308 308 308 312 314 315 316 316 316 315 316 315 315 315 313 311 308 305 302 300 300 300 299 300
316 316 316 317 316 316 317 318 320 319 319 318 314 313 311 309 307 306 305 305 306 307 307 308 308 306 305 306 308 309 311 311 312 312 312 313 313 312 313 313 312 311 308 305 301 299 299 299 299
316 317 315 315 316 319 316 319 318 319 319 315 312 312 309 307 306 305 304 304 305 305 305 305 306 307 306 305 306 307 308 307 307 307 308 309 309 310 311 312 312 312 310 306 304 300 299 298 299
316 312 313 314 316 317 318 319 319 318 318 316 312 309 308 306 305 304 303 302 303 304 304 304 304 303 303 303 303 303 303 304 305 305 304 304 305 306 307 309 311 310 310 309 306 304 300 298 298
311 312 314 315 317 320 319 318 318 316 315 312 310 308 306 305 304 303 302 301 300 301 302 303 303 303 304 303 302 302 302 301 302 303 302 302 303 303 304 305 306 308 308 309 306 304 301 299 298
311 313 320 322 323 324 319 316 317 317 315 313 310 306 305 304 303 302 301 300 299 298 299 300 302 304 304 304 304 303 302 301 300 300 300 301 301 301 301 301 302 304 307 308 307 305 302 300 299
316 317 321 322 323 323 319 319 318 313 310 308 307 305 303 302 301 301 300 299 298 298 299 300 301 302 301 302 302 302 302 302 301 299 299 299 299 299 299 300 300 301 302 304 304 304 303 300 299
315 315 314 317 317 319 318 316 316 314 310 307 304 302 301 300 299 299 299 298 297 298 297 298 299 298 298 299 300 300 300 300 300 300 300 299 298 297 298 297 298 299 299 300 301 301 300 300 299
313 315 319 316 319 318 315 314 315 315 313 307 304 301 300 299 298 297 297 298 297 296 296 295 295 296 295 294 295 297 298 299 299 298 299 299 299 298 298 298 298 297 297 298 298 299 299 299 298
313 312 312 312 313 316 317 316 312 312 310 306 301 299 298 297 296 297 295 294 293 293 293 291 291 289 290 291 291 291 291 293 295 297 298 297 297 298 298 298 299 298 297 297 296 296 297 298 298
314 314 314 316 317 314 314 315 313 307 304 301 299 297 296 295 292 293 294 292 291 290 290 289 289 289 288 288 288 289 289 290 290 290 292 294 296 296 296 297 298 298 297 296 296 296 295 295 296

GFSSGP_850_thetae_021.txt.gz
Theta_e
314 318 318 323 319 317 319 321 318 319 319 320 320 319 318 319 319 319 321 322 322 325 324 329 331 330 331 331 330 330 331 331 331 330 330 328 326 325 325 324 332 332 330 327 325 323 322 320 323
315 317 322 324 318 318 316 318 319 319 320 320 320 320 320 319 321 322 322 320 322 323 324 326 328 330 330 329 329 329 331 330 329 327 327 325 324 323 324 329 331 331 328 324 323 319 320 321 321
315 317 321 315 316 317 318 317 318 319 320 320 320 321 320 320 321 320 322 319 319 321 321 324 327 328 329 329 329 329 329 328 327 326 326 325 323 322 322 328 331 329 325 322 321 319 318 319 319
321 321 320 316 320 318 318 317 319 319 320 319 319 318 320 319 319 318 317 317 317 319 320 321 326 328 328 329 329 328 327 327 327 326 325 324 324 323 319 324 323 320 320 319 319 316 315 314 313
320 320 315 318 319 318 317 320 320 319 319 319 319 318 319 319 317 316 316 316 316 317 319 319 322 325 327 328 329 329 328 327 326 326 324 324 324 320 315 318 317 316 314 314 314 314 313 312 311
320 317 315 317 316 317 318 319 320 319 319 319 318 318 318 320 317 316 316 316 316 316 317 319 319 320 323 326 327 327 328 328 328 328 328 326 324 322 315 312 313 313 312 312 312 311 309 306 305
319 314 317 318 318 317 319 319 318 317 316 317 319 316 318 319 318 317 317 316 316 316 316 317 319 319 319 324 325 326 328 327 327 327 331 330 331 327 317 312 311 310 310 309 308 307 305 304 303
319 314 318 316 316 318 318 318 318 318 316 317 317 314 318 318 318 318 317 316 316 316 316 316 318 319 319 318 319 322 322 324 324 325 329 331 331 331 324 318 311 309 308 307 306 305 303 303 304
318 313 314 318 317 316 318 316 318 317 317 317 317 317 318 317 318 318 318 317 316 316 317 316 316 317 319 319 318 318 318 318 321 328 329 329 331 330 325 321 314 309 307 305 305 304 303 304 306
317 313 317 317 316 317 317 316 316 316 316 316 316 316 317 317 317 317 318 318 317 317 317 317 316 316 317 319 319 318 317 317 317 319 327 327 327 329 327 324 317 309 306 305 305 304 304 304 305
319 315 316 318 318 318 317 317 317 315 313 316 316 317 316 317 317 317 317 317 317 317 316 317 319 318 316 317 318 319 318 318 318 316 320 329 329 326 325 323 316 310 307 305 306 305 304 305 306
318 318 318 317 318 317 317 317 317 317 316 316 316 316 317 316 316 316 316 316 316 316 316 316 317 318 319 317 318 318 319 319 319 318 318 326 331 328 319 319 317 311 308 305 306 304 304 305 305
316 317 318 318 318 317 316 316 315 316 316 316 316 316 316 316 315 315 315 316 316 316 315 315 315 317 318 320 319 320 320 320 321 321 321 319 326 327 321 317 316 313 309 306 306 305 304 304 305
315 314 315 315 315 315 314 314 315 316 316 316 316 316 316 315 314 315 315 315 316 316 316 315 315 315 316 318 320 320 322 324 324 324 324 324 321 321 322 317 317 316 311 306 305 305 304 304 304
315 314 312 314 314 313 315 314 313 316 316 316 317 316 315 313 314 313 314 314 314 314 315 315 315 315 315 317 319 321 321 325 326 325 325 324 324 322 322 322 319 317 313 308 304 304 304 303 304
314 313 313 313 314 314 313 313 313 316 316 316 316 315 312 312 311 311 312 312 313 313 314 314 315 315 315 316 318 319 320 321 324 326 326 329 329 326 326 325 324 322 317 310 306 304 304 304 303
312 312 313 314 314 313 312 311 313 316 315 316 315 312 311 309 309 308 309 310 311 312 312 312 312 313 315 317 319 321 321 321 323 324 325 328 326 327 328 327 325 324 320 313 308 306 305 304 303
313 313 314 314 314 313 313 310 310 315 315 314 312 309 308 308 306 307 308 308 308 308 309 310 311 312 313 313 314 321 323 323 323 324 325 325 325 325 325 325 324 322 319 316 311 307 306 304 302
312 314 313 312 313 313 313 312 311 314 315 313 308 307 307 305 304 306 306 307 307 307 308 308 309 310 311 311 311 312 317 321 322 323 322 322 322 322 322 321 322 321 319 317 314 310 306 304 301
313 313 312 312 313 314 312 312 311 312 313 312 308 307 306 305 305 304 305 305 306 305 306 306 306 307 308 309 311 312 314 316 319 320 319 319 319 318 318 318 318 318 318 316 314 311 307 305 301
313 313 313 313 312 312 313 312 313 313 308 307 307 306 306 304 303 303 303 304 304 305 305 305 305 306 306 307 309 310 311 314 315 316 316 315 316 316 315 315 315 314 314 314 314 312 309 305 302
314 312 313 313 311 312 313 313 312 311 308 306 305 305 304 303 302 302 302 302 302 302 304 305 305 305 305 304 305 305 306 306 307 307 307 307 309 311 312 312 312 312 311 310 310 311 308 305 302
312 311 311 312 311 312 312 313 312 309 309 307 304 304 303 302 302 302 302 302 303 303 303 304 304 305 305 305 305 304 303 303 304 305 305 304 304 303 304 305 308 309 308 307 306 306 307 305 302
309 311 310 309 310 312 312 313 313 310 310 306 304 303 302 302 301 301 302 302 302 302 302 302 303 303 303 303 303 303 304 303 302 302 301 301 301 301 301 301 301 303 306 306 305 304 304 304 303
310 310 314 313 311 314 313 313 313 310 308 306 303 302 302 302 301 301 301 300 300 300 300 300 300 300 300 300 301 301 300 300 300 301 300 300 300 299 300 300 300 300 300 301 304 304 304 303 303
310 314 314 316 313 310 312 313 313 304 303 303 302 301 301 300 300 300 299 299 299 298 298 297 297 297 297 297 296 295 296 296 295 295 295 296 296 297 298 298 297 298 298 298 298 299 301 301 301
312 313 312 314 305 310 312 312 307 304 302 301 300 301 300 299 298 298 298 297 295 294 293 291 290 290 290 290 290 291 291 290 290 290 290 290 290 291 293 294 296 297 298 297 296 297 297 298 299
313 312 314 312 311 311 313 312 311 307 303 300 299 299 299 298 298 298 297 295 293 291 290 290 289 289 288 288 288 287 287 287 288 288 288 288 288 288 288 288 288 290 294 297 297 296 295 296 297
311 310 311 312 312 312 309 309 307 307 302 300 299 300 299 300 299 297 296 294 292 290 289 289 288 288 288 287 287 287 287 287 287 287 287 287 287 287 287 287 287 287 287 288 290 295 297 295 294
309 310 311 311 310 308 311 311 304 302 302 301 300 301 301 300 299 298 294 292 290 290 289 288 288 288 288 287 287 287 286 286 286 287 287 286 286 286 286 287 287 287 287 286 286 287 287 289 296

GFSSGP_850_thetae_024.txt.gz
Theta_e
314 317 319 324 319 313 317 319 317 319 319 319 319 319 318 318 318 317 321 320 320 324 325 331 331 331 331 331 331 332 332 332 332 331 330 330 327 325 324 324 334 333 328 325 324 323 321 320 323
315 316 322 323 315 316 315 316 319 318 320 320 320 320 319 318 321 321 321 319 320 322 323 329 330 330 331 331 331 329 329 330 330 329 329 327 325 324 323 323 330 331 329 324 323 320 319 320 320
315 317 320 313 312 315 316 316 317 318 320 319 319 320 319 319 320 321 320 318 318 321 322 323 329 330 330 330 329 328 328 329 328 327 326 325 323 323 323 329 329 329 326 323 321 319 318 319 320
320 321 319 314 318 316 316 315 317 318 319 319 318 317 319 319 319 317 316 316 317 319 321 320 325 329 330 330 329 329 329 328 326 326 325 325 323 321 321 322 327 323 321 319 318 318 316 315 315
319 319 313 316 317 316 316 318 319 318 318 319 318 317 317 319 318 316 316 316 316 316 318 320 321 326 328 329 329 329 329 328 327 333 328 325 323 321 320 317 318 318 315 315 315 314 314 313 312
320 315 313 315 316 315 317 318 319 316 315 317 318 317 317 319 317 316 316 316 316 316 317 319 320 322 325 327 328 328 328 327 326 332 333 333 331 324 322 315 314 314 313 312 312 312 312 310 308
317 312 314 316 315 316 318 318 317 316 315 317 318 316 317 318 318 318 317 317 316 316 316 318 319 320 322 325 327 327 328 327 327 328 328 330 330 329 327 321 312 311 311 310 310 309 307 305 304
319 312 316 314 314 316 316 317 317 317 316 317 317 313 316 317 318 317 317 317 316 316 316 316 318 319 320 320 322 325 327 328 328 328 327 329 330 330 326 322 316 312 309 309 307 306 304 303 303
318 311 313 316 316 315 316 314 317 316 316 316 316 317 316 316 317 317 317 317 317 317 316 316 317 319 319 320 321 319 320 321 331 332 330 328 329 330 327 326 321 317 310 308 306 305 304 303 304
315 310 313 315 315 316 316 316 316 316 315 315 315 315 316 316 316 316 317 317 316 316 317 316 316 317 318 320 321 321 320 326 335 335 331 331 329 329 328 329 327 324 314 308 305 305 304 303 304
317 313 314 316 317 316 316 316 316 315 313 316 315 315 316 316 316 316 316 316 316 316 316 316 316 316 318 317 317 319 320 321 322 322 328 329 335 335 333 329 329 325 317 310 306 305 304 304 305
317 318 317 318 318 316 315 316 316 316 316 316 315 315 315 315 315 314 314 315 315 315 316 317 316 315 316 318 319 318 319 319 319 320 323 329 334 332 334 329 325 327 323 312 307 305 304 304 304
315 315 317 317 317 316 316 315 313 315 316 315 315 314 315 315 315 314 314 314 315 315 316 316 316 317 316 317 318 319 319 321 321 322 322 323 326 337 333 331 325 321 322 315 309 304 304 304 304
314 314 314 315 315 314 313 313 314 316 316 316 315 314 314 314 314 313 314 314 314 314 315 316 316 316 317 317 318 320 321 321 323 325 326 326 325 326 331 328 328 324 321 319 313 306 304 303 303
314 313 311 312 313 312 314 313 312 316 315 315 313 313 312 312 312 312 312 313 313 313 314 315 315 315 315 317 318 321 322 323 324 326 327 328 328 327 326 325 328 326 322 322 319 310 305 303 302
313 311 312 313 313 313 312 313 312 316 316 312 312 311 310 310 310 310 311 311 312 312 312 313 314 315 315 315 321 324 324 324 324 326 327 328 329 329 327 329 328 323 327 323 321 315 307 305 303
310 310 311 312 313 313 312 311 312 316 314 310 310 308 308 307 306 306 307 308 309 310 310 311 312 313 314 315 321 325 325 325 325 325 326 327 326 325 325 325 325 327 326 325 323 320 311 306 305
311 311 311 313 313 312 312 310 309 314 313 310 308 306 305 305 304 304 305 306 307 307 308 309 310 312 314 315 317 322 323 324 324 324 324 324 324 324 324 324 323 324 323 323 323 321 315 310 307
311 311 312 311 311 312 311 311 310 313 312 308 306 305 303 302 302 304 304 305 306 307 307 307 308 309 310 311 312 314 319 321 322 321 321 321 321 322 322 322 322 323 322 320 319 319 316 313 310
310 311 311 311 310 312 311 311 310 309 308 307 305 304 302 301 302 303 304 305 305 305 306 306 306 307 308 309 311 312 313 315 318 319 318 318 318 319 318 318 318 317 317 318 316 315 315 314 311
311 311 312 312 311 310 312 311 312 306 306 305 305 303 302 301 301 302 303 304 305 305 306 306 306 305 305 305 307 308 310 312 314 316 315 314 314 314 315 315 316 316 316 314 314 313 312 312 311
314 311 312 312 311 312 311 311 310 309 306 304 303 302 300 300 300 301 302 303 303 303 304 305 305 305 305 305 306 305 304 305 305 305 306 308 308 309 311 310 311 312 312 312 311 311 309 309 308
313 310 311 311 310 310 310 310 309 307 307 304 301 301 300 300 300 300 301 301 301 301 302 302 302 302 302 304 304 304 304 302 301 302 303 302 302 302 303 305 306 307 308 308 307 307 307 306 306
309 310 309 307 308 311 310 310 311 309 309 303 301 300 300 300 300 300 299 300 300 301 302 302 302 302 302 301 301 301 302 302 302 302 301 300 299 300 300 301 301 301 302 303 305 305 305 304 304
308 310 313 312 310 314 311 311 311 306 305 304 301 300 300 300 300 299 300 299 299 300 299 299 299 299 298 298 299 298 298 298 298 299 298 298 297 297 297 297 299 299 298 299 299 300 303 303 302
308 311 312 313 312 311 309 312 310 302 301 301 302 301 301 301 300 300 300 300 300 298 297 295 294 294 293 293 293 292 291 291 290 290 290 291 291 290 289 290 291 294 296 297 297 297 297 298 300
311 312 311 311 298 307 311 309 305 302 299 299 299 300 300 300 300 300 300 300 299 296 294 293 292 291 291 290 290 290 289 289 288 288 287 287 287 287 288 287 288 288 288 289 291 294 296 296 296
310 310 313 309 309 309 310 311 310 304 301 299 298 299 300 300 300 301 301 299 298 294 292 290 290 290 289 289 288 288 288 288 288 288 288 288 288 288 288 288 287 287 287 287 287 288 287 288 292
310 310 311 311 308 308 306 308 306 305 302 300 299 301 301 301 300 300 299 298 295 292 290 289 289 289 288 288 288 288 287 287 287 287 287 287 287 287 286 286 287 287 286 286 286 286 287 287 287
309 309 309 308 308 307 308 310 305 304 301 301 301 302 302 300 299 298 297 296 292 291 290 289 289 288 288 288 288 287 287 287 287 287 286 286 286 286 286 286 286 286 286 286 286 286 286 285 286

GFSSGP_850_thetae_027.txt.gz
Theta_e
313 315 318 323 317 313 316 318 316 318 318 319 319 318 317 318 317 316 320 319 320 322 327 332 333 334 333 333 334 331 331 332 332 331 330 330 327 325 324 326 334 334 330 325 323 322 321 322 322
314 316 322 321 314 315 315 314 318 317 318 319 319 319 318 318 320 321 320 318 319 321 322 329 331 331 331 331 331 332 332 330 331 330 329 329 327 325 324 327 329 332 329 325 322 320 320 320 319
316 318 319 311 310 314 315 315 316 318 318 318 318 319 318 318 320 320 319 317 318 319 321 325 329 330 331 331 331 332 330 329 330 328 327 326 325 324 322 328 330 329 327 324 321 320 318 320 320
319 321 317 312 316 314 315 315 315 317 318 318 317 317 318 318 319 317 315 316 316 318 321 321 326 329 330 331 331 330 328 328 328 327 326 325 324 322 321 323 330 329 322 321 319 318 317 316 316
319 318 312 314 316 315 315 316 317 316 317 318 318 316 317 318 318 316 316 316 315 316 318 321 321 327 329 329 329 329 329 328 328 325 325 326 323 322 321 321 324 318 317 315 315 315 315 314 313
319 314 312 314 315 314 316 317 317 315 315 316 317 316 317 318 317 316 316 317 316 316 317 320 321 322 326 328 329 329 329 329 328 326 329 329 325 323 321 320 313 313 313 312 312 312 312 312 310
315 309 313 314 314 315 316 317 315 315 314 316 317 315 316 317 317 317 317 317 316 316 316 317 319 322 325 327 327 328 328 329 329 328 333 332 331 329 327 324 319 312 311 310 310 310 309 308 306
318 310 315 313 313 316 315 315 316 315 315 316 316 313 315 316 316 317 317 317 317 317 316 316 317 318 321 323 326 328 329 329 329 328 329 329 329 329 329 328 326 317 313 309 309 308 306 305 304
317 309 311 315 315 315 316 314 316 316 315 315 315 316 315 315 315 316 316 316 316 316 316 317 317 317 318 319 321 324 327 329 331 331 330 328 328 329 329 329 328 326 322 313 308 306 305 304 303
313 307 310 313 314 315 316 315 315 316 315 314 314 315 315 315 315 315 315 315 316 316 317 318 318 318 318 319 320 323 324 330 338 335 334 332 330 334 333 328 329 329 326 323 311 306 305 303 303
314 311 312 316 316 316 315 315 315 314 313 315 314 314 314 315 315 315 314 314 314 314 315 317 318 319 320 319 319 320 322 326 328 337 332 333 331 332 331 332 331 328 328 326 319 308 304 303 303
316 316 315 317 316 316 315 316 315 314 315 315 314 313 315 315 314 314 314 314 314 314 315 315 316 316 318 320 320 321 321 322 325 332 336 333 334 331 330 330 328 331 328 327 325 314 306 303 302
315 315 316 317 316 314 314 314 313 314 315 314 313 314 314 314 313 313 313 313 313 314 314 315 315 315 316 317 319 320 321 322 323 324 324 331 330 328 330 330 327 328 330 322 323 319 310 304 302
313 314 314 315 315 313 313 312 313 316 314 313 313 314 313 312 312 311 311 312 312 313 314 314 315 315 315 316 318 321 322 323 324 326 326 326 325 328 327 325 327 327 327 327 322 320 315 307 304
313 312 309 311 312 311 312 312 311 316 313 312 312 312 311 310 309 310 310 311 311 311 312 313 314 314 315 315 318 321 325 326 326 326 327 329 329 330 330 328 328 324 325 324 324 324 321 316 306
312 310 310 312 312 312 312 313 312 315 312 310 309 308 309 309 309 308 308 309 310 310 310 310 312 314 315 315 316 322 326 327 329 329 329 328 328 327 326 326 325 325 325 324 321 323 323 319 313
308 309 310 311 312 312 311 312 312 314 312 308 306 306 306 305 305 306 306 307 307 308 308 309 311 313 315 316 320 324 327 328 328 327 325 325 325 324 324 324 324 325 324 323 323 322 321 322 318
309 310 310 311 313 311 312 310 309 313 311 307 304 303 303 303 302 303 304 305 306 307 307 309 310 312 315 318 320 323 324 325 325 324 323 322 323 323 323 324 323 323 324 326 325 323 321 319 319
309 310 311 310 310 312 310 309 309 311 308 304 303 302 302 301 301 303 304 304 305 306 306 307 308 309 310 311 313 316 319 321 322 319 319 319 320 320 320 321 321 321 322 323 322 321 319 317 316
309 310 309 309 309 310 310 310 309 305 304 304 302 301 300 300 301 302 303 304 305 306 306 306 306 306 307 307 309 311 313 314 317 317 315 315 316 316 317 318 318 319 318 318 317 316 316 315 314
310 310 311 311 311 309 310 310 311 304 303 303 302 301 300 300 300 301 303 303 303 303 303 304 304 305 305 305 306 307 308 310 312 313 313 312 311 311 312 313 314 314 314 314 315 313 312 312 312
312 309 310 311 311 312 309 312 309 306 303 301 300 300 299 300 300 300 300 301 301 301 302 303 303 303 303 303 303 303 304 304 303 303 303 303 303 304 305 308 308 309 309 310 310 310 310 309 308
313 309 309 310 309 309 309 309 307 305 305 302 300 299 299 299 300 299 300 300 301 302 302 302 302 302 301 302 302 302 302 302 302 302 302 301 300 300 301 301 302 302 302 304 305 305 306 306 306
308 308 308 307 307 310 309 310 310 308 307 302 300 299 299 299 299 299 299 300 301 300 300 300 300 300 300 300 300 300 300 299 299 299 298 297 297 297 297 297 298 298 299 299 299 299 300 302 303
308 310 313 312 310 314 309 309 309 305 302 303 300 299 299 300 299 300 300 300 300 300 299 299 298 298 297 297 296 296 296 294 293 292 291 291 291 290 289 289 290 290 291 292 293 296 297 297 297
307 310 312 313 311 311 308 312 311 301 300 302 301 301 300 300 299 299 299 300 301 300 297 296 295 295 294 294 294 293 292 292 291 290 290 290 289 289 289 289 288 288 288 288 288 288 288 290 293
309 311 309 310 296 306 311 309 304 300 299 299 300 300 300 300 300 300 300 300 300 297 295 293 293 293 292 292 291 291 290 290 290 289 289 288 288 288 288 288 288 287 287 287 288 287 287 287 287
309 309 312 308 310 311 310 309 310 302 300 298 298 299 300 301 300 299 299 300 299 296 294 292 291 291 291 290 289 289 289 288 288 288 288 288 288 288 287 287 287 287 287 286 286 286 287 287 287
310 311 310 310 307 308 305 308 304 304 301 299 299 300 301 301 300 300 300 300 298 296 293 291 290 290 289 289 288 288 288 288 288 288 288 287 287 287 287 286 286 286 286 286 286 286 286 286 286
308 309 309 312 309 305 307 310 303 302 302 301 300 302 303 302 301 300 300 299 298 294 292 290 290 289 289 288 288 288 288 288 288 287 287 287 286 286 285 285 285 285 285 285 285 285 285 285 285

GFSSGP_850_thetae_030.txt.gz
Theta_e
313 315 319 322 315 312 315 318 315 316 317 317 318 317 317 317 316 315 320 319 321 322 328 330 332 333 333 333 332 330 329 331 332 331 330 330 328 325 324 331 333 334 330 323 322 321 320 322 321
314 317 321 320 312 313 314 313 317 316 317 318 318 318 317 317 319 320 320 319 319 322 326 329 331 332 333 333 334 332 330 332 331 330 330 329 328 325 324 327 330 330 329 324 320 320 319 319 319
317 319 319 309 309 313 314 314 315 317 317 317 317 318 317 317 319 317 317 317 318 320 322 327 329 331 331 330 331 331 332 330 329 329 328 327 326 324 323 323 328 329 326 324 320 320 318 319 320
319 320 316 310 315 313 314 314 314 317 317 317 317 316 317 318 318 316 315 315 316 318 322 323 329 330 330 330 330 331 331 328 328 327 326 325 325 323 321 321 330 330 317 318 318 317 317 316 316
318 317 311 313 315 314 312 315 316 315 316 316 317 316 316 317 318 316 315 316 316 316 319 322 324 329 330 330 331 331 331 329 328 328 326 330 326 323 321 320 323 315 314 313 313 315 314 314 313
318 314 311 313 314 313 314 315 315 313 314 316 316 315 316 317 317 316 316 316 316 316 316 317 320 322 327 329 330 331 331 330 329 329 328 331 329 325 325 323 321 315 311 311 311 311 312 312 311
314 308 311 313 313 314 314 315 314 314 314 315 316 313 316 316 315 316 317 317 317 316 316 317 318 320 322 326 328 329 329 330 330 329 329 331 331 330 328 327 325 322 315 311 310 310 309 309 306
317 309 313 312 312 315 314 314 315 315 314 316 316 312 313 315 315 316 316 317 316 316 317 317 319 320 322 324 326 328 328 329 330 330 329 330 331 330 328 328 327 327 321 318 310 308 307 306 304
315 307 309 314 311 314 315 314 315 315 314 315 314 314 313 314 314 315 316 316 316 316 317 318 318 320 321 322 325 326 328 330 332 332 331 331 330 329 329 329 329 328 328 324 319 309 306 305 303
311 305 309 311 313 314 315 314 315 315 314 313 315 314 314 314 315 315 315 314 314 314 315 316 317 319 320 322 324 325 327 332 335 333 332 331 330 330 330 331 330 329 329 328 325 320 309 304 303
313 309 311 315 315 315 315 314 315 314 312 312 313 312 313 313 313 313 313 313 314 313 313 314 316 317 318 319 320 322 324 328 330 334 333 331 331 329 330 329 329 328 329 327 326 325 317 306 303
315 315 314 316 316 315 314 315 314 314 313 313 313 313 313 314 313 313 313 312 312 313 313 314 315 315 316 317 318 319 322 324 332 331 328 331 330 330 329 328 328 328 326 328 327 324 323 313 305
315 314 314 315 315 314 314 313 313 313 312 312 312 312 312 312 311 311 311 311 312 313 313 313 314 314 315 316 318 321 323 323 325 327 330 327 329 328 328 326 325 326 326 324 325 325 322 318 310
312 313 313 314 314 312 312 311 312 311 312 313 312 313 311 310 311 310 310 311 311 312 312 313 313 314 315 315 318 323 325 326 326 327 328 332 331 329 327 327 326 324 324 325 323 323 321 322 319
313 312 309 310 311 311 311 313 311 311 311 312 311 310 309 309 308 309 309 309 309 310 311 311 312 313 314 315 317 323 326 327 328 329 329 329 329 327 326 327 326 325 325 324 323 322 322 322 321
311 308 310 310 311 311 311 313 312 311 311 309 309 308 307 307 306 306 306 307 308 308 309 310 311 313 315 316 318 322 325 327 328 326 326 325 326 327 327 326 325 324 323 324 324 323 321 321 321
306 311 309 309 311 311 311 312 311 310 310 306 305 305 305 305 305 305 305 306 307 308 308 310 313 315 317 318 320 323 325 326 325 325 323 324 324 323 324 325 324 325 325 325 326 324 321 322 319
310 309 308 310 311 311 311 310 309 309 309 305 303 303 303 303 303 304 305 306 306 307 308 309 311 315 317 320 322 323 324 325 323 322 320 320 321 321 321 322 323 323 324 324 323 323 323 322 320
308 308 310 309 310 311 310 309 309 306 304 302 302 301 301 302 302 302 303 304 305 306 306 307 309 310 311 313 314 316 317 319 320 317 316 317 317 317 317 318 319 320 320 319 319 318 318 316 316
309 309 308 308 308 309 309 309 309 304 303 303 301 300 300 301 302 303 304 305 305 305 305 306 306 306 306 307 307 308 311 312 314 315 314 313 313 312 313 314 314 315 315 316 316 316 315 314 313
307 308 309 310 310 309 309 309 306 303 302 301 301 300 299 300 301 301 301 301 302 302 303 303 303 303 303 303 304 304 305 307 306 306 307 304 304 304 305 307 309 310 311 311 311 311 311 311 311
309 307 309 310 311 313 308 311 308 304 302 300 299 299 299 299 300 300 300 301 302 302 302 302 302 302 301 302 302 302 302 302 302 302 302 302 302 302 302 302 302 303 304 305 306 307 307 306 307
311 308 309 309 309 308 309 309 307 304 304 301 299 299 298 299 299 299 300 301 301 300 300 300 301 300 300 300 300 300 300 299 298 297 298 298 297 297 297 297 298 298 298 299 299 299 300 301 302
306 308 307 306 307 310 309 310 309 306 306 302 299 299 299 299 298 298 300 300 299 299 298 298 299 300 299 299 299 299 298 297 296 295 295 293 292 292 292 291 291 290 290 290 290 291 294 296 296
307 309 313 312 311 314 308 308 309 306 303 302 300 299 298 299 299 298 299 299 298 298 297 298 298 298 297 297 296 296 296 295 294 293 292 291 290 290 290 289 289 289 288 288 288 288 288 288 288
307 310 313 315 312 311 308 311 311 301 300 301 302 301 299 299 298 298 298 299 299 297 297 297 296 296 295 294 294 293 292 292 292 291 290 290 289 288 288 287 287 287 287 287 287 287 287 287 287
308 309 309 309 295 307 310 309 303 300 299 298 299 300 300 299 299 299 299 299 299 299 296 295 294 294 293 292 291 291 290 290 290 289 289 289 289 289 288 288 287 287 287 286 286 286 286 286 286
309 308 312 308 309 310 311 309 311 304 301 298 297 299 300 300 299 299 299 300 300 298 295 294 293 292 291 290 290 289 289 289 288 288 288 288 288 287 287 287 287 286 286 286 286 286 286 286 286
310 310 309 309 308 310 307 310 303 304 300 299 299 301 301 301 301 301 300 299 299 297 295 293 291 290 290 289 289 289 289 289 288 288 288 287 287 286 286 285 285 285 285 286 286 285 285 285 285
307 309 308 312 310 304 307 312 301 302 300 300 300 302 303 303 302 301 300 299 299 297 296 293 291 290 289 289 289 289 289 288 288 288 287 287 286 286 285 285 285 285 285 285 285 284 284 284 284

GFSSGP_850_thetae_033.txt.gz
Theta_e
313 314 319 322 319 316 316 317 314 316 316 316 317 317 317 317 316 319 320 320 321 322 330 332 333 334 334 332 332 332 330 331 332 331 330 329 327 325 326 332 333 331 326 321 320 319 319 321 321
314 318 322 319 316 317 318 313 316 315 316 317 317 316 316 317 319 319 320 320 320 322 328 330 332 333 333 333 332 330 329 330 332 331 330 329 328 325 326 330 328 326 324 321 319 319 318 319 319
318 319 319 312 311 316 317 313 314 316 316 316 316 317 316 317 318 318 317 317 318 321 324 330 331 332 333 333 333 333 331 332 330 330 329 328 326 325 325 325 327 325 321 321 319 318 317 317 319
319 320 315 312 314 313 313 313 313 316 317 317 316 316 316 316 318 316 316 316 317 319 322 325 329 330 332 331 331 332 331 332 328 328 327 326 325 325 323 326 329 324 314 315 316 317 316 316 315
317 317 313 314 314 313 311 314 315 314 315 316 316 315 315 317 318 316 316 316 316 318 323 325 327 329 330 329 330 330 331 332 329 328 328 325 327 325 322 322 321 316 311 312 311 313 314 313 313
317 314 313 314 313 312 313 314 314 313 313 315 315 314 315 317 316 316 316 316 316 316 319 324 326 328 330 330 330 330 331 331 329 329 329 329 331 327 327 326 324 322 315 311 310 311 311 311 310
313 310 312 311 313 313 314 314 313 313 313 315 315 313 315 314 315 316 317 317 317 317 318 319 321 325 327 332 333 333 333 330 330 330 330 329 331 331 330 328 327 326 324 318 311 309 309 308 306
316 310 311 312 313 314 313 314 314 314 314 315 314 312 312 313 314 316 316 317 316 316 317 318 320 321 323 326 330 333 332 331 330 330 330 330 330 331 330 329 329 329 328 326 321 312 307 306 304
314 308 310 312 311 313 314 314 314 314 314 314 313 313 312 313 313 314 316 316 316 316 316 317 318 320 322 324 326 328 331 330 330 331 331 331 330 330 331 331 329 331 330 328 327 324 314 306 304
310 307 309 310 310 313 314 314 314 314 313 313 313 311 311 313 314 314 314 314 314 314 314 315 316 317 318 320 322 325 329 330 331 332 331 331 330 329 329 328 328 329 328 325 326 325 324 312 304
311 309 309 313 314 315 314 314 314 314 311 313 312 312 313 313 313 313 313 313 313 313 313 313 314 316 317 318 321 323 325 328 334 332 331 329 329 329 328 328 328 326 326 326 325 325 322 323 312
314 314 313 315 315 315 314 314 314 313 312 312 312 312 312 313 313 312 312 312 312 313 313 313 314 314 315 317 319 323 326 335 331 332 329 326 327 329 328 327 327 326 325 325 324 323 324 321 320
315 313 314 315 315 314 314 313 313 311 310 310 310 311 311 311 312 311 311 311 312 312 313 313 313 314 314 315 317 320 324 328 332 330 329 329 326 326 327 326 326 323 324 322 324 324 323 322 320
312 312 312 313 312 312 312 311 312 308 308 309 309 309 309 309 310 310 310 310 310 311 311 312 313 313 314 314 318 323 331 327 326 328 328 327 329 329 327 327 325 325 325 324 323 323 322 321 320
312 312 309 310 310 311 311 310 309 309 308 310 310 310 309 309 308 309 309 309 309 309 310 311 311 313 314 314 318 324 327 327 327 329 326 326 325 326 326 326 328 328 327 327 326 324 322 321 321
310 308 312 311 311 311 311 314 308 309 310 309 309 308 308 308 307 306 307 307 308 309 310 312 313 314 315 316 318 322 326 330 326 325 325 324 324 324 328 327 326 327 326 326 324 324 324 322 320
306 312 309 310 310 310 310 313 308 308 309 307 306 305 305 305 305 305 306 307 307 309 311 313 316 318 319 321 323 325 327 326 324 323 322 322 322 323 322 322 322 323 323 323 324 324 323 322 321
311 310 308 309 311 310 310 310 306 307 307 304 304 303 303 304 304 305 306 307 307 308 311 315 316 318 320 321 322 323 323 322 321 320 320 318 319 319 319 319 320 320 320 321 322 322 321 320 319
308 309 310 309 309 311 310 309 309 305 304 302 301 301 301 302 302 303 304 305 306 308 309 310 312 314 315 316 318 319 318 318 318 317 316 316 316 316 316 316 316 316 316 317 316 316 316 316 316
307 309 308 307 308 309 309 309 307 304 303 303 302 301 301 301 302 302 303 304 305 305 305 306 306 307 307 307 307 308 310 311 312 311 310 308 307 307 307 309 311 312 312 313 313 313 312 312 311
307 308 307 310 309 308 309 309 307 302 301 301 300 300 300 301 302 302 302 302 302 303 303 303 303 303 303 303 304 304 304 304 304 304 303 303 303 303 303 304 304 304 305 306 306 306 308 308 308
308 306 307 309 310 313 308 313 308 305 302 300 299 299 299 300 300 300 300 301 302 302 302 302 302 302 301 301 302 302 302 302 301 301 300 299 299 299 299 299 299 300 300 300 300 299 300 301 301
310 306 307 308 309 309 308 310 308 304 305 302 298 298 298 299 299 299 299 300 300 300 300 300 300 300 300 300 299 299 299 297 295 295 294 294 293 293 293 292 292 292 291 291 291 291 291 293 295
305 307 306 305 306 310 310 311 310 307 307 302 299 299 299 298 298 298 299 299 299 299 299 299 299 299 298 298 298 298 298 297 296 295 295 294 292 292 291 291 290 290 290 289 289 288 288 288 288
306 309 312 313 312 314 306 308 310 307 304 303 301 299 298 299 298 299 299 299 299 298 298 298 298 298 298 297 297 297 297 296 296 295 293 292 291 291 290 289 289 289 288 288 288 287 287 287 287
306 310 313 314 313 312 306 311 312 302 301 302 302 301 299 298 298 299 299 299 299 298 296 297 297 297 296 295 295 295 294 294 293 292 291 290 290 289 288 288 287 287 287 286 286 286 286 286 286
308 310 308 307 295 307 310 309 307 300 300 299 300 300 299 299 299 298 299 300 299 298 297 296 295 295 294 293 292 292 292 291 290 290 289 289 289 288 288 288 287 287 286 286 286 286 286 286 286
308 307 311 308 311 311 311 311 312 305 303 298 297 298 299 299 298 298 299 300 299 298 297 296 294 292 292 291 290 290 290 289 289 289 288 288 287 287 286 286 286 285 285 285 286 286 286 286 286
310 310 308 309 309 312 309 310 304 305 302 300 298 300 301 300 300 300 300 299 299 298 297 294 293 292 291 290 289 289 289 289 289 288 288 288 287 287 286 286 285 285 285 285 285 285 285 285 285
307 308 309 313 310 305 307 313 302 302 301 302 301 301 302 302 302 301 301 300 299 299 297 295 294 292 290 289 289 289 289 289 288 288 288 288 287 287 286 285 285 284 285 285 285 285 284 284 284

GFSSGP_850_thetae_036.txt.gz
Theta_e
313 314 319 323 324 323 322 321 320 320 320 318 317 319 320 319 320 321 320 320 321 325 332 333 334 335 334 332 334 334 331 332 332 331 330 328 326 325 333 331 331 326 322 321 319 319 319 319 320
315 319 322 320 323 321 321 320 321 320 319 317 317 318 319 319 319 320 323 321 321 324 330 332 334 335 334 332 332 332 330 330 332 331 329 328 327 326 329 328 325 323 321 320 319 319 318 319 319
318 319 322 323 322 321 321 320 320 319 317 318 318 317 318 319 319 320 318 319 321 324 330 331 333 333 333 333 333 331 330 331 331 330 329 327 326 326 330 330 327 315 315 316 318 317 317 317 318
319 319 317 321 321 319 319 319 319 319 317 317 317 318 316 318 319 318 317 318 319 323 327 331 332 333 333 333 333 333 332 333 330 328 327 326 325 325 328 329 321 316 311 312 313 315 315 315 315
318 319 321 321 319 318 317 317 318 319 317 317 316 317 317 317 318 317 317 318 319 322 323 328 331 332 333 334 332 332 332 332 330 329 328 327 328 327 324 323 322 322 315 311 310 312 313 313 312
319 318 321 321 319 318 317 316 317 316 315 316 316 317 316 314 316 317 317 317 317 320 323 325 326 330 332 336 336 335 333 332 332 329 330 330 332 330 329 328 328 326 322 316 310 309 309 309 308
319 321 321 320 319 319 318 314 316 316 316 317 315 317 316 313 315 316 317 317 317 318 320 323 326 327 329 331 334 336 336 335 332 331 331 330 330 332 331 330 328 328 327 325 320 310 307 307 305
316 319 319 319 319 320 317 315 314 316 317 314 314 316 316 313 314 315 317 317 317 317 318 319 320 323 326 329 331 333 333 333 332 331 331 330 330 331 332 331 328 329 328 327 326 322 314 306 305
314 317 319 319 318 318 316 317 314 315 315 314 312 313 313 313 313 314 316 316 316 316 317 317 318 319 321 325 330 332 332 332 331 330 330 331 330 331 331 329 328 328 327 327 324 324 323 313 305
316 317 316 317 317 318 316 316 316 315 316 314 313 311 311 312 312 313 314 315 315 315 315 315 316 318 319 319 322 326 330 330 331 331 332 330 330 330 329 328 327 327 327 326 326 325 323 323 315
315 316 313 315 315 316 316 316 315 316 317 314 314 311 312 312 312 312 312 312 312 312 313 313 314 315 317 320 321 324 331 329 331 332 331 330 329 329 328 327 327 326 325 325 325 324 323 323 321
317 315 315 316 315 315 316 315 316 315 314 312 311 312 312 312 312 312 312 313 312 312 312 313 313 313 315 318 321 323 329 331 329 330 327 328 326 326 327 328 326 325 324 324 324 323 323 323 322
318 316 315 315 314 315 314 315 315 313 311 311 311 311 311 312 312 312 312 312 312 312 312 312 313 313 313 316 321 325 333 331 330 329 328 329 328 327 326 327 327 326 326 324 323 322 322 321 322
314 314 314 313 313 313 314 314 313 309 308 309 309 310 310 310 310 310 310 310 310 311 312 312 312 313 313 313 321 329 332 330 328 328 328 328 327 328 326 325 327 325 325 326 324 323 323 322 321
313 315 315 314 312 313 312 313 314 309 307 307 308 307 307 307 308 309 309 309 309 310 311 311 311 313 314 314 326 330 329 330 328 328 326 326 325 325 326 325 325 326 326 327 324 324 323 324 321
314 314 319 315 313 311 313 320 312 308 308 308 305 304 305 306 307 307 307 308 309 311 313 314 315 316 316 321 329 329 327 328 326 326 324 324 323 323 323 325 325 326 325 325 326 324 323 321 321
315 320 317 317 312 313 314 319 312 308 309 308 306 304 305 305 306 306 307 307 309 313 315 318 319 321 324 326 327 327 326 325 324 323 322 322 321 321 321 321 321 321 321 321 321 322 322 322 321
320 317 315 318 314 313 315 316 311 308 309 309 306 304 302 303 305 305 306 307 309 313 316 318 319 320 322 324 324 323 322 321 320 320 320 318 318 318 318 317 317 318 318 318 318 318 318 318 318
316 316 318 315 312 314 317 317 314 309 308 307 305 304 302 302 303 304 305 308 310 313 315 317 319 320 320 320 320 320 319 318 318 316 315 315 316 315 314 314 315 315 315 315 315 314 314 313 313
313 316 317 314 311 313 315 315 315 309 310 308 306 303 302 301 302 303 305 307 309 310 310 310 310 311 312 312 312 312 314 313 309 308 306 305 305 305 306 306 307 308 308 310 310 309 309 309 309
313 315 316 316 312 311 313 316 316 310 306 305 304 303 301 301 302 303 304 304 305 305 304 304 304 304 304 304 305 305 305 304 303 303 302 302 302 302 302 302 302 302 301 301 301 301 300 301 301
316 312 312 312 313 319 313 322 317 313 309 305 303 301 301 299 300 301 302 302 302 302 302 302 302 302 302 302 302 302 302 302 301 300 299 298 297 297 296 295 295 294 294 293 293 292 292 291 292
317 310 312 312 314 314 315 317 319 310 311 307 304 301 301 299 299 300 300 301 301 301 301 301 301 301 301 300 300 299 299 298 297 296 295 294 293 293 292 292 292 292 291 291 290 290 289 289 289
309 311 311 311 314 318 317 317 320 315 313 311 304 301 300 298 299 299 299 300 300 299 300 300 300 299 299 298 298 297 297 296 296 295 294 294 293 292 292 292 291 291 290 290 289 288 288 287 287
311 315 320 319 318 321 310 315 319 315 309 309 306 302 300 298 297 298 299 299 299 299 299 299 298 298 297 297 297 297 297 296 296 295 295 294 293 292 292 291 290 290 289 288 288 287 287 287 286
312 317 322 325 321 319 309 315 316 307 304 304 306 302 300 298 297 298 299 299 299 299 298 298 297 297 297 297 297 296 296 295 295 294 293 292 291 291 290 289 289 288 288 287 287 287 286 286 286
311 313 314 313 305 317 317 314 312 305 304 303 303 301 299 298 298 299 299 299 299 298 298 297 297 296 296 296 295 295 294 293 293 292 291 290 290 289 288 288 287 287 286 286 286 286 286 286 286
311 312 314 314 322 323 318 317 320 310 308 304 303 302 300 299 298 298 299 299 298 297 297 296 295 295 295 295 294 293 292 291 291 290 290 289 288 288 287 287 286 285 285 285 285 285 285 285 285
311 312 312 314 316 324 323 319 314 315 310 306 304 303 301 299 299 299 299 299 299 298 297 296 295 294 294 293 292 291 291 290 290 289 288 288 288 287 287 287 286 286 285 285 285 285 285 285 285
312 314 313 318 316 313 315 320 306 308 309 307 306 303 302 300 300 300 299 299 299 299 298 296 294 294 293 292 291 291 290 289 289 288 288 288 288 287 287 287 287 286 285 284 284 284 284 284 284

GFSSGP_850_thetae_042.txt.gz
Theta_e
314 318 323 326 329 326 322 321 320 321 320 319 319 319 318 321 322 327 329 326 331 342 338 335 338 337 335 334 334 332 331 332 330 329 328 326 328 333 328 325 320 322 318 317 317 317 318 319 319
316 322 324 326 326 322 320 320 320 319 320 319 320 320 319 321 325 327 328 324 331 341 339 336 338 338 337 335 334 332 331 331 330 329 327 326 327 329 327 323 315 311 312 315 316 316 315 316 317
321 321 323 326 324 322 321 320 317 319 319 319 319 319 321 322 323 327 324 330 332 340 340 341 339 339 340 339 334 332 330 332 330 328 327 325 326 327 324 321 318 315 310 310 313 315 314 314 314
321 323 322 322 323 320 320 319 319 319 319 319 319 319 319 324 325 327 326 332 334 339 342 339 338 339 339 338 336 332 331 332 331 328 328 326 326 328 325 323 321 320 314 310 311 312 312 312 311
320 322 325 323 320 319 318 320 320 319 319 318 318 319 319 320 325 326 325 332 335 336 337 337 336 338 337 337 336 335 334 333 332 330 329 329 329 328 326 326 326 325 323 317 311 309 309 308 307
323 322 323 321 319 319 319 320 320 319 317 317 319 320 317 318 322 320 326 326 335 328 338 335 333 336 336 337 336 336 335 334 333 332 333 332 331 331 330 330 328 326 325 324 321 315 308 306 305
322 323 322 322 319 319 319 319 318 318 318 317 317 318 316 314 317 318 318 318 319 321 329 332 334 334 335 336 336 335 335 335 334 333 333 331 331 331 331 331 330 329 326 324 323 322 319 310 305
319 319 320 320 319 320 319 318 318 318 316 317 316 317 316 315 314 316 317 317 318 321 322 323 324 329 332 335 336 336 335 334 335 334 331 330 330 331 332 331 329 327 326 325 324 323 322 321 313
316 318 319 320 320 320 318 317 317 318 317 316 315 315 315 314 313 314 316 316 317 318 319 320 321 321 323 331 336 334 334 333 333 332 331 330 330 334 333 330 328 326 326 324 324 323 322 321 321
319 320 319 318 318 319 318 318 318 317 317 315 314 313 313 313 314 315 316 315 314 314 315 317 318 319 320 323 326 337 333 331 332 332 332 331 333 334 333 330 327 326 325 324 324 323 322 322 321
319 318 316 317 318 319 318 318 318 318 317 317 316 314 312 312 312 312 312 312 312 312 312 313 313 315 319 321 324 330 333 334 335 334 336 334 332 330 329 328 327 326 325 324 323 322 322 321 321
318 317 317 318 317 318 318 319 318 317 315 315 315 314 312 312 312 312 311 311 311 311 312 312 312 312 313 319 322 329 331 331 331 334 335 333 331 330 329 327 327 328 326 325 324 323 322 322 321
318 318 317 318 317 317 317 318 318 317 316 314 313 312 311 311 311 311 311 312 312 312 312 312 312 313 312 319 330 331 330 330 332 333 332 330 328 328 326 327 326 325 326 326 324 323 322 322 322
317 318 317 317 317 317 316 317 317 317 315 313 311 311 311 311 311 311 311 312 311 312 312 312 312 313 313 315 328 331 330 328 330 330 327 326 327 325 326 325 326 325 326 326 323 324 324 322 321
316 316 316 316 316 316 316 315 315 315 314 312 311 310 310 310 310 311 311 311 310 311 312 312 312 313 313 324 328 329 326 327 327 326 326 326 325 325 324 323 323 323 323 323 325 324 323 323 321
316 317 318 319 316 315 315 317 317 314 313 311 311 309 309 309 310 311 310 310 310 311 312 312 313 313 318 326 326 326 326 326 325 324 324 324 323 322 321 321 321 321 321 320 320 320 319 319 318
317 317 318 318 316 314 313 318 314 313 312 312 311 310 309 309 309 310 310 309 310 311 313 314 316 318 324 324 324 324 324 323 323 323 324 322 321 320 319 320 319 319 319 318 317 317 316 316 316
320 319 319 320 315 315 314 313 313 312 312 313 312 311 309 308 307 308 308 308 310 312 315 318 319 321 321 322 323 323 323 323 323 323 321 319 318 318 317 316 315 315 314 314 314 313 312 311 310
318 318 318 320 314 316 315 315 316 313 312 313 313 312 310 308 307 307 307 308 313 314 317 320 319 320 321 321 322 322 321 321 320 319 317 314 312 311 309 308 307 308 307 306 305 305 303 303 302
317 317 317 318 314 314 315 315 316 313 312 312 313 313 310 307 306 306 307 309 314 314 316 317 318 318 318 319 319 320 321 318 316 312 310 306 305 305 304 304 303 302 302 301 300 299 298 297 297
317 317 317 318 315 314 313 313 315 316 315 313 313 314 311 308 306 304 306 309 313 315 315 316 317 317 317 319 319 318 317 311 306 304 303 302 301 301 300 299 298 297 297 296 296 295 295 294 294
317 317 316 317 316 317 314 318 318 317 316 312 313 314 311 307 305 304 305 308 312 315 316 316 317 317 318 317 316 312 306 304 303 301 300 299 298 297 296 296 296 295 295 295 294 294 293 292 292
317 315 316 316 316 317 317 318 318 317 318 315 312 311 310 307 305 303 305 308 310 312 312 312 313 313 311 309 306 304 303 302 301 299 297 297 296 296 295 295 295 294 294 293 292 291 290 290 289
313 315 315 315 316 318 318 319 319 319 318 316 312 310 309 306 304 303 303 306 308 309 309 308 307 306 305 303 302 301 301 299 298 297 297 296 296 295 295 294 294 293 293 292 292 291 290 289 288
315 316 320 319 317 319 316 319 319 317 315 315 312 310 308 305 303 301 302 304 306 306 306 305 303 302 301 300 299 298 298 298 297 297 296 296 295 294 294 294 293 293 292 292 291 290 290 289 288
313 317 320 323 322 320 311 315 317 313 310 312 313 309 307 304 302 301 302 303 303 303 303 303 302 301 300 299 298 298 298 297 297 297 296 295 294 294 293 292 292 291 291 290 289 289 288 287 287
315 316 317 317 308 313 317 314 313 309 308 308 309 307 305 303 301 300 301 301 302 302 302 302 301 300 299 298 298 298 298 297 297 296 295 294 294 293 292 292 291 290 289 289 288 288 287 286 286
314 314 316 315 316 319 320 319 319 311 309 306 307 306 304 302 301 300 300 301 301 301 301 300 300 299 299 298 298 298 297 297 296 295 294 293 293 292 291 290 290 289 288 288 288 287 286 285 285
312 313 314 316 316 319 319 320 315 314 311 307 307 306 304 302 301 300 300 300 301 301 300 300 299 299 298 298 298 297 297 296 294 294 293 292 292 291 290 290 289 288 288 288 288 287 286 285 284
314 314 314 316 317 315 315 320 311 311 310 308 307 306 304 303 301 300 300 300 300 300 299 299 299 298 297 297 297 297 296 295 294 293 292 292 291 291 290 289 288 288 288 288 288 287 287 285 284

GFSSGP_850_thetae_045.txt.gz
Theta_e
314 318 322 326 321 314 318 318 316 317 317 318 320 321 321 322 323 323 331 330 337 339 339 334 336 335 334 333 332 331 331 330 329 327 326 330 332 328 322 315 312 312 315 316 316 316 317 318 318
318 322 324 324 318 314 314 315 316 317 318 319 319 319 320 322 326 329 327 332 338 340 336 335 337 336 334 334 332 331 331 330 328 326 325 328 328 326 322 318 316 310 310 314 315 315 314 314 316
321 321 323 318 315 315 316 314 314 318 318 318 318 320 321 323 326 325 328 332 340 338 337 335 336 338 336 334 333 330 330 331 328 325 324 326 328 324 321 320 319 315 310 311 312 312 312 312 312
322 323 322 315 318 315 315 313 317 317 318 318 318 317 322 326 324 325 333 333 339 337 337 336 338 337 338 335 332 331 330 331 328 327 326 328 327 326 323 322 320 319 316 311 309 309 309 309 309
321 322 317 316 317 316 316 317 318 316 317 317 319 317 319 325 328 328 333 334 336 338 339 337 337 337 336 336 335 333 332 332 330 329 329 329 329 329 329 328 326 324 322 321 317 309 307 306 304
322 320 316 315 315 316 317 319 319 315 316 317 318 317 317 322 325 329 332 334 334 337 336 337 336 336 336 336 336 335 335 333 332 332 332 331 331 331 330 330 329 327 325 323 322 320 314 305 303
319 314 317 316 314 316 317 319 316 315 316 316 317 314 315 319 321 324 328 328 329 332 334 336 336 336 336 336 336 335 335 334 333 332 332 330 330 331 331 330 328 326 325 324 323 322 321 317 306
318 313 316 315 314 316 317 318 317 317 316 316 316 313 313 314 317 317 317 320 322 326 327 327 333 335 335 336 336 335 334 334 334 333 331 329 329 330 331 329 327 326 324 323 322 321 320 320 319
315 310 313 316 316 316 317 316 317 317 316 316 315 316 315 313 315 316 316 317 318 321 323 324 324 323 329 333 335 335 334 333 333 333 331 330 330 331 330 329 327 326 325 323 323 322 321 320 319
316 311 316 315 315 315 317 317 317 316 316 314 313 313 313 313 315 316 316 315 315 316 317 319 320 320 322 326 333 334 332 331 332 333 332 331 332 332 332 329 327 326 325 324 323 322 322 321 321
317 313 314 316 317 317 317 317 317 316 314 315 315 313 312 313 315 315 315 315 314 314 314 314 315 317 320 322 325 332 331 332 332 334 333 333 334 331 329 328 327 325 325 324 323 322 322 321 321
315 315 316 317 317 318 316 317 317 317 315 316 316 313 313 312 312 313 312 312 312 312 312 312 312 312 314 321 325 334 334 335 334 334 333 332 331 330 328 327 327 327 325 324 324 322 322 321 321
316 316 316 317 317 317 317 317 316 315 315 315 314 313 313 313 312 312 312 312 312 313 313 312 312 312 312 317 326 334 331 332 332 330 331 331 331 329 327 327 325 324 324 323 323 322 322 322 321
316 316 317 317 316 316 316 316 316 315 315 314 313 312 312 312 312 312 313 313 313 313 313 313 312 313 313 317 329 331 328 329 329 329 330 330 328 327 325 326 325 324 324 324 324 322 323 323 322
316 314 314 315 316 315 315 313 313 315 314 313 312 312 311 311 311 312 312 312 312 312 312 312 312 312 313 320 329 326 327 326 327 327 327 326 325 325 325 324 324 323 322 322 323 323 321 320 319
315 314 315 315 314 314 314 313 314 314 313 312 311 311 311 310 311 311 311 311 311 312 312 312 312 313 314 326 326 324 325 325 325 323 324 325 325 323 323 321 320 321 321 320 320 319 318 317 317
314 314 314 316 313 312 312 313 312 312 312 312 311 311 310 309 309 310 310 311 311 311 312 312 312 315 321 325 324 324 324 324 324 322 323 324 322 321 321 320 320 320 319 318 316 315 313 312 312
315 315 316 316 314 313 312 311 312 312 312 312 311 310 310 310 310 309 309 310 310 311 312 313 314 318 322 322 322 323 322 323 322 321 323 322 320 319 318 318 318 316 314 313 311 309 307 305 304
315 316 316 315 314 313 312 312 311 313 312 311 311 311 310 310 309 309 309 309 310 311 312 314 318 319 320 321 322 322 322 321 321 321 320 318 316 314 314 311 309 307 305 304 303 301 300 300 298
314 314 314 314 313 312 312 312 312 311 311 312 312 312 311 309 308 308 308 308 310 312 312 316 318 318 320 320 321 321 320 320 320 319 316 313 309 307 305 304 303 301 300 298 297 297 297 297 297
315 315 314 315 313 312 312 312 312 312 312 313 312 313 311 311 310 308 307 308 311 312 313 317 317 317 318 318 319 319 318 319 317 313 308 304 303 302 300 299 298 297 297 297 296 295 295 294 294
315 314 315 315 315 315 312 316 314 313 312 309 312 311 312 310 309 309 308 308 311 313 313 315 316 316 316 316 318 318 319 316 308 304 303 301 299 298 297 297 296 296 296 295 295 294 293 293 292
315 314 315 314 314 315 314 314 314 314 315 315 312 310 311 311 310 309 308 308 310 313 313 313 314 315 316 317 318 318 314 306 303 301 300 298 297 296 296 296 295 295 294 294 293 293 292 292 291
311 313 313 313 313 315 315 315 316 317 316 316 314 311 311 310 309 309 307 306 309 313 314 314 315 316 317 316 316 310 305 304 302 299 298 297 296 296 295 295 294 294 293 293 292 292 291 291 289
313 313 316 317 315 319 314 315 318 315 314 313 312 310 310 310 308 307 306 306 307 311 313 314 315 315 314 312 306 303 302 301 299 298 297 297 296 295 295 294 294 293 293 292 292 291 290 289 288
312 314 316 319 318 317 311 315 316 314 315 312 313 314 310 307 307 306 306 306 306 309 310 311 311 311 308 304 302 301 299 298 297 297 297 297 296 295 295 294 293 293 292 292 291 290 289 289 288
312 315 315 317 302 310 315 313 312 309 308 309 310 309 307 306 306 305 305 305 306 308 309 308 308 306 303 301 300 298 298 297 297 297 297 296 295 295 294 293 292 292 291 290 290 289 288 288 287
313 312 315 312 314 315 316 316 318 313 310 306 306 306 305 304 305 305 305 304 305 306 306 305 304 302 302 300 299 298 298 297 297 297 296 295 295 294 293 292 292 291 290 290 289 288 288 287 287
313 313 314 315 313 317 317 318 312 314 311 307 306 307 307 305 304 304 304 303 303 303 304 303 302 301 300 299 298 298 297 297 297 296 295 295 294 293 292 291 291 290 290 289 288 288 288 287 287
312 314 312 317 315 311 313 320 309 311 309 309 308 307 307 306 305 304 303 303 302 301 301 301 301 300 299 298 297 297 297 297 296 296 295 294 293 292 291 291 290 290 289 289 288 288 288 287 287

GFSSGP_850_thetae_048.txt.gz
Theta_e
314 317 322 326 318 313 315 317 315 317 316 320 321 321 319 322 322 319 331 332 334 338 333 334 334 334 333 332 331 331 331 330 326 328 331 330 324 319 317 314 310 311 315 315 314 315 317 318 319
318 322 324 323 312 313 313 314 317 316 319 320 320 320 322 324 328 329 328 333 335 339 335 334 335 334 333 332 331 330 330 328 325 323 327 326 323 319 317 317 313 310 311 313 313 313 313 314 316
321 321 322 313 311 313 314 314 314 316 319 318 319 319 321 324 326 327 329 334 335 338 335 335 336 335 333 333 331 330 330 328 325 324 325 326 324 321 321 319 318 315 310 309 309 309 310 310 311
322 323 319 312 316 314 313 312 315 316 317 317 318 318 324 325 326 329 332 336 335 335 336 335 336 336 334 333 331 330 330 329 327 326 329 327 327 328 327 326 323 320 319 314 308 307 306 305 306
321 321 313 313 316 316 313 314 316 315 316 317 318 316 323 328 327 331 333 337 336 336 336 335 336 336 334 334 332 331 331 331 329 328 328 328 329 329 329 328 327 326 321 319 316 310 306 304 303
321 317 313 314 314 316 316 316 316 314 316 317 317 317 320 327 328 332 334 333 336 337 336 336 336 336 334 335 334 333 333 331 331 331 331 330 330 329 329 328 328 327 324 320 318 318 313 305 304
316 311 315 313 313 316 316 316 314 313 315 315 317 313 319 325 327 331 334 332 335 335 336 336 335 336 336 335 335 334 334 332 331 331 330 329 329 330 329 328 326 325 325 318 318 318 318 317 309
318 311 314 313 313 315 316 316 316 316 314 315 316 312 315 322 323 329 331 331 331 333 334 330 337 335 335 335 335 334 334 333 332 332 330 329 328 329 328 328 327 325 324 322 320 319 318 318 318
315 308 311 315 313 316 316 314 316 316 315 315 316 315 315 318 319 320 322 325 325 329 330 327 335 339 339 337 335 334 334 333 333 333 331 329 329 330 330 328 326 325 324 323 322 322 321 320 319
314 309 314 315 314 313 315 316 316 316 314 312 313 315 313 315 316 316 316 317 319 322 323 324 324 324 327 334 335 334 332 333 333 333 333 331 330 331 330 328 327 325 324 323 322 321 321 321 320
314 311 313 315 317 316 315 316 316 314 313 314 313 314 314 313 315 315 314 314 314 315 316 318 319 320 322 325 336 332 332 332 336 332 331 330 331 332 330 328 327 325 325 324 323 322 321 320 320
313 314 315 316 316 316 315 316 315 315 316 316 315 313 313 313 314 314 314 314 314 313 313 313 313 315 319 322 330 333 331 332 332 331 331 330 331 330 331 328 330 327 325 324 323 323 321 321 322
314 315 315 316 316 317 317 316 315 316 316 316 315 313 313 313 313 313 313 313 312 312 312 312 312 312 312 320 324 333 330 331 331 330 331 330 331 330 329 329 329 328 325 323 323 323 323 323 322
316 315 316 316 316 316 315 315 316 315 314 314 314 314 313 312 312 312 312 313 313 313 312 312 312 312 312 316 322 329 328 329 330 329 330 331 330 328 327 327 326 324 323 325 324 322 323 322 320
315 313 312 314 315 315 315 313 312 315 314 313 313 313 312 312 312 312 312 313 313 313 313 313 312 312 312 318 326 328 327 326 328 328 327 329 328 327 326 326 325 324 323 321 322 322 321 319 318
314 312 314 313 313 314 313 311 313 314 313 312 312 311 311 311 312 312 312 313 313 313 313 313 312 312 314 318 327 325 326 326 326 326 327 326 325 324 324 323 322 321 320 321 320 319 317 315 315
311 313 313 313 312 312 311 313 313 312 312 312 311 311 311 311 311 311 311 312 312 312 312 312 312 313 318 321 324 324 324 324 324 323 323 323 324 323 321 320 319 320 319 317 315 313 310 309 308
313 313 313 314 313 312 311 310 310 311 311 312 312 311 311 311 312 311 311 311 311 311 312 312 312 313 315 324 322 322 322 322 322 321 321 323 323 321 320 319 318 318 317 313 309 307 304 304 303
313 313 315 314 313 312 310 311 311 311 310 310 311 311 311 312 311 310 309 310 310 311 312 312 312 315 320 322 321 321 322 321 321 320 320 322 320 319 316 316 315 312 308 305 303 301 299 299 299
312 313 312 312 312 311 312 311 310 310 310 311 312 313 313 311 310 309 309 309 310 311 312 312 313 315 319 319 320 320 320 320 320 319 320 320 317 315 311 308 306 303 302 299 298 297 297 297 296
313 312 313 314 313 311 311 310 310 311 311 313 314 315 314 313 312 309 309 309 309 310 312 313 315 316 318 319 319 319 319 318 318 318 318 314 311 307 304 302 300 298 297 297 297 296 296 296 295
314 312 314 314 314 314 311 315 312 311 310 309 313 312 313 312 310 310 309 309 309 310 312 314 316 317 317 318 319 319 319 319 318 318 314 307 303 302 299 298 297 297 296 296 296 295 295 294 294
314 313 313 313 312 314 313 313 312 312 312 312 314 314 314 312 312 311 310 310 309 310 312 314 316 317 316 317 317 317 319 318 317 311 305 302 299 297 297 296 296 296 295 295 295 294 293 292 292
311 313 312 311 312 314 314 313 313 314 315 313 314 315 316 315 312 310 310 309 308 311 313 314 315 314 314 314 315 315 318 317 311 304 302 299 297 296 296 295 295 295 295 294 294 293 292 291 291
312 313 314 316 314 317 312 313 316 313 312 313 315 317 316 314 311 308 309 308 308 310 312 313 312 312 312 313 314 316 317 314 306 303 300 298 297 296 295 295 295 295 294 294 293 292 291 290 290
312 312 314 316 316 315 311 315 316 311 314 314 315 314 313 311 309 308 308 308 308 309 311 313 311 310 313 314 316 315 313 305 303 301 298 297 296 296 295 295 294 294 293 293 292 291 290 289 289
312 314 314 315 299 310 315 313 312 310 309 310 312 311 309 311 309 307 308 308 308 308 309 312 313 313 314 315 314 310 304 302 300 297 296 296 296 295 295 294 294 293 293 292 291 290 289 289 288
311 311 314 311 314 314 315 315 318 313 311 310 309 307 309 309 306 306 307 307 307 307 308 311 313 314 314 313 310 303 301 299 297 296 296 296 296 295 295 294 293 293 292 291 290 289 289 288 288
312 312 313 314 312 315 314 316 310 314 311 310 309 312 310 308 308 307 307 307 306 306 306 309 311 311 311 309 304 301 299 297 296 296 296 296 295 295 295 294 293 292 291 290 290 289 289 288 288
311 313 312 314 313 311 312 319 310 310 311 311 312 314 312 310 309 308 307 306 305 304 305 307 308 308 308 305 301 299 298 296 296 296 296 295 295 295 294 293 292 291 291 290 289 289 288 288 288